Wetterdaten: Mittwoch, 26.09.2018
Datum Zeit Temp. Aussen Temp. o. S. +5cm Feuchte Auss Luftdruck Regen Sonnenschein Regendauer Solar Windben Empfang
26.09.2018 00:00 7,1 C 7,2 C 6,7 C 90 % 1034,1 hPa 0,0 l/m 0 min 0 min 0 W/m 3,2 km/h (1 Bft) 97,87 %
26.09.2018 00:02 7,1 C 7,2 C 6,7 C 90 % 1034,1 hPa 0,0 l/m 0 min 0 min 0 W/m 3,2 km/h (1 Bft) 100,00 %
26.09.2018 00:04 7,1 C 7,2 C 6,7 C 90 % 1034,1 hPa 0,0 l/m 0 min 0 min 0 W/m 6,4 km/h (2 Bft) 95,74 %
26.09.2018 00:07 7,1 C 7,2 C 6,7 C 91 % 1034,0 hPa 0,0 l/m 0 min 0 min 0 W/m 6,4 km/h (2 Bft) 95,74 %
26.09.2018 00:08 7,1 C 7,2 C 6,7 C 91 % 1034,0 hPa 0,0 l/m 0 min 0 min 0 W/m 6,4 km/h (2 Bft) 96,81 %
26.09.2018 00:10 7,1 C 7,2 C 6,7 C 91 % 1034,1 hPa 0,0 l/m 0 min 0 min 0 W/m 6,4 km/h (2 Bft) 95,74 %
26.09.2018 00:12 7,2 C 7,2 C 6,7 C 91 % 1034,0 hPa 0,0 l/m 0 min 0 min 0 W/m 6,4 km/h (2 Bft) 97,87 %
26.09.2018 00:14 7,2 C 7,8 C 6,7 C 91 % 1034,0 hPa 0,0 l/m 0 min 0 min 0 W/m 6,4 km/h (2 Bft) 97,83 %
26.09.2018 00:16 7,2 C 7,2 C 7,2 C 91 % 1034,0 hPa 0,0 l/m 0 min 0 min 0 W/m 9,7 km/h (2 Bft) 97,87 %
26.09.2018 00:18 7,2 C 7,2 C 7,2 C 92 % 1033,9 hPa 0,0 l/m 0 min 0 min 0 W/m 6,4 km/h (2 Bft) 97,87 %
26.09.2018 00:20 7,2 C 7,2 C 7,2 C 92 % 1034,0 hPa 0,0 l/m 0 min 0 min 0 W/m 6,4 km/h (2 Bft) 97,87 %
26.09.2018 00:22 7,2 C 7,2 C 7,2 C 92 % 1034,1 hPa 0,0 l/m 0 min 0 min 0 W/m 6,4 km/h (2 Bft) 97,87 %
26.09.2018 00:24 7,2 C 7,8 C 7,2 C 92 % 1034,0 hPa 0,0 l/m 0 min 0 min 0 W/m 6,4 km/h (2 Bft) 100,00 %
26.09.2018 00:26 7,3 C 7,2 C 7,2 C 92 % 1034,0 hPa 0,0 l/m 0 min 0 min 0 W/m 6,4 km/h (2 Bft) 100,00 %
26.09.2018 00:28 7,3 C 7,2 C 7,2 C 92 % 1034,0 hPa 0,0 l/m 0 min 0 min 0 W/m 3,2 km/h (1 Bft) 100,00 %
26.09.2018 00:30 7,3 C 7,2 C 7,2 C 92 % 1034,0 hPa 0,0 l/m 0 min 0 min 0 W/m 6,4 km/h (2 Bft) 100,00 %
26.09.2018 00:32 7,3 C 7,2 C 7,2 C 92 % 1034,0 hPa 0,0 l/m 0 min 0 min 0 W/m 6,4 km/h (2 Bft) 100,00 %
26.09.2018 00:34 7,3 C 7,2 C 7,2 C 92 % 1033,9 hPa 0,0 l/m 0 min 0 min 0 W/m 9,7 km/h (2 Bft) 100,00 %
26.09.2018 00:36 7,3 C 7,2 C 7,2 C 92 % 1033,8 hPa 0,0 l/m 0 min 0 min 0 W/m 6,4 km/h (2 Bft) 100,00 %
26.09.2018 00:38 7,3 C 7,2 C 7,2 C 92 % 1033,9 hPa 0,0 l/m 0 min 0 min 0 W/m 6,4 km/h (2 Bft) 97,87 %
26.09.2018 00:40 7,3 C 7,2 C 7,2 C 92 % 1033,9 hPa 0,0 l/m 0 min 0 min 0 W/m 6,4 km/h (2 Bft) 100,00 %
26.09.2018 00:42 7,3 C 7,2 C 7,2 C 92 % 1033,9 hPa 0,0 l/m 0 min 0 min 0 W/m 9,7 km/h (2 Bft) 100,00 %
26.09.2018 00:44 7,3 C 7,2 C 7,2 C 92 % 1033,9 hPa 0,0 l/m 0 min 0 min 0 W/m 6,4 km/h (2 Bft) 100,00 %
26.09.2018 00:46 7,3 C 7,2 C 7,2 C 92 % 1034,0 hPa 0,0 l/m 0 min 0 min 0 W/m 6,4 km/h (2 Bft) 100,00 %
26.09.2018 00:48 7,4 C 7,2 C 7,2 C 92 % 1034,0 hPa 0,0 l/m 0 min 0 min 0 W/m 6,4 km/h (2 Bft) 100,00 %
26.09.2018 00:50 7,4 C 7,2 C 7,2 C 92 % 1033,9 hPa 0,0 l/m 0 min 0 min 0 W/m 3,2 km/h (1 Bft) 95,74 %
26.09.2018 00:52 7,4 C 7,2 C 6,7 C 92 % 1033,8 hPa 0,0 l/m 0 min 0 min 0 W/m 3,2 km/h (1 Bft) 100,00 %
26.09.2018 00:54 7,4 C 7,2 C 6,7 C 92 % 1033,8 hPa 0,0 l/m 0 min 0 min 0 W/m 3,2 km/h (1 Bft) 100,00 %
26.09.2018 00:56 7,4 C 7,2 C 6,7 C 92 % 1033,8 hPa 0,0 l/m 0 min 0 min 0 W/m 3,2 km/h (1 Bft) 97,87 %
26.09.2018 00:58 7,4 C 7,2 C 6,7 C 92 % 1033,7 hPa 0,0 l/m 0 min 0 min 0 W/m 0,0 km/h (0 Bft) 100,00 %
26.09.2018 01:00 7,4 C 7,2 C 6,7 C 92 % 1033,8 hPa 0,0 l/m 0 min 0 min 0 W/m 0,0 km/h (0 Bft) 100,00 %
26.09.2018 01:02 7,4 C 7,2 C 6,7 C 92 % 1033,7 hPa 0,0 l/m 0 min 0 min 0 W/m 0,0 km/h (0 Bft) 100,00 %
26.09.2018 01:04 7,4 C 7,2 C 6,7 C 92 % 1033,7 hPa 0,0 l/m 0 min 0 min 0 W/m 0,0 km/h (0 Bft) 100,00 %
26.09.2018 01:06 7,4 C 7,2 C 6,7 C 92 % 1033,6 hPa 0,0 l/m 0 min 0 min 0 W/m 0,0 km/h (0 Bft) 100,00 %
26.09.2018 01:08 7,4 C 7,2 C 6,7 C 92 % 1033,7 hPa 0,0 l/m 0 min 0 min 0 W/m 0,0 km/h (0 Bft) 100,00 %
26.09.2018 01:10 7,4 C 7,2 C 6,7 C 92 % 1033,7 hPa 0,0 l/m 0 min 0 min 0 W/m 0,0 km/h (0 Bft) 100,00 %
26.09.2018 01:12 7,4 C 6,7 C 6,7 C 92 % 1033,7 hPa 0,0 l/m 0 min 0 min 0 W/m 0,0 km/h (0 Bft) 97,87 %
26.09.2018 01:14 7,4 C 6,7 C 6,7 C 92 % 1033,7 hPa 0,0 l/m 0 min 0 min 0 W/m 0,0 km/h (0 Bft) 100,00 %
26.09.2018 01:16 7,4 C 6,7 C 6,7 C 92 % 1033,7 hPa 0,0 l/m 0 min 0 min 0 W/m 0,0 km/h (0 Bft) 100,00 %
26.09.2018 01:18 7,4 C 6,7 C 6,7 C 92 % 1033,7 hPa 0,0 l/m 0 min 0 min 0 W/m 0,0 km/h (0 Bft) 100,00 %
26.09.2018 01:20 7,4 C 6,7 C 6,7 C 92 % 1033,7 hPa 0,0 l/m 0 min 0 min 0 W/m 0,0 km/h (0 Bft) 97,83 %
26.09.2018 01:22 7,3 C 6,7 C 6,7 C 92 % 1033,6 hPa 0,0 l/m 0 min 0 min 0 W/m 0,0 km/h (0 Bft) 100,00 %
26.09.2018 01:24 7,3 C 6,7 C 6,7 C 92 % 1033,7 hPa 0,0 l/m 0 min 0 min 0 W/m 0,0 km/h (0 Bft) 100,00 %
26.09.2018 01:26 7,3 C 6,7 C 7,2 C 92 % 1033,7 hPa 0,0 l/m 0 min 0 min 0 W/m 0,0 km/h (0 Bft) 100,00 %
26.09.2018 01:28 7,3 C 6,7 C 7,2 C 92 % 1033,7 hPa 0,0 l/m 0 min 0 min 0 W/m 0,0 km/h (0 Bft) 100,00 %
26.09.2018 01:30 7,3 C 6,7 C 7,2 C 92 % 1033,7 hPa 0,0 l/m 0 min 0 min 0 W/m 0,0 km/h (0 Bft) 100,00 %
26.09.2018 01:32 7,3 C 6,7 C 6,7 C 92 % 1033,7 hPa 0,0 l/m 0 min 0 min 0 W/m 0,0 km/h (0 Bft) 100,00 %
26.09.2018 01:34 7,3 C 6,7 C 7,2 C 92 % 1033,7 hPa 0,0 l/m 0 min 0 min 0 W/m 0,0 km/h (0 Bft) 100,00 %
26.09.2018 01:36 7,3 C 6,7 C 7,2 C 92 % 1033,7 hPa 0,0 l/m 0 min 0 min 0 W/m 0,0 km/h (0 Bft) 97,87 %
26.09.2018 01:38 7,3 C 6,7 C 7,2 C 92 % 1033,6 hPa 0,0 l/m 0 min 0 min 0 W/m 0,0 km/h (0 Bft) 100,00 %
26.09.2018 01:40 7,2 C 6,7 C 6,7 C 92 % 1033,7 hPa 0,0 l/m 0 min 0 min 0 W/m 0,0 km/h (0 Bft) 97,87 %
26.09.2018 01:42 7,2 C 6,7 C 6,7 C 92 % 1033,9 hPa 0,0 l/m 0 min 0 min 0 W/m 0,0 km/h (0 Bft) 97,87 %
26.09.2018 01:44 7,2 C 6,1 C 6,7 C 92 % 1033,8 hPa 0,0 l/m 0 min 0 min 0 W/m 0,0 km/h (0 Bft) 95,65 %
26.09.2018 01:46 7,2 C 6,1 C 6,7 C 92 % 1033,9 hPa 0,0 l/m 0 min 0 min 0 W/m 0,0 km/h (0 Bft) 100,00 %
26.09.2018 01:48 7,2 C 6,1 C 6,1 C 92 % 1034,0 hPa 0,0 l/m 0 min 0 min 0 W/m 0,0 km/h (0 Bft) 100,00 %
26.09.2018 01:50 7,2 C 6,1 C 6,1 C 92 % 1034,0 hPa 0,0 l/m 0 min 0 min 0 W/m 0,0 km/h (0 Bft) 100,00 %
26.09.2018 01:52 7,2 C 5,6 C 6,1 C 92 % 1034,0 hPa 0,0 l/m 0 min 0 min 0 W/m 0,0 km/h (0 Bft) 97,87 %
26.09.2018 01:54 7,1 C 5,6 C 6,1 C 91 % 1034,0 hPa 0,0 l/m 0 min 0 min 0 W/m 0,0 km/h (0 Bft) 95,74 %
26.09.2018 01:56 7,1 C 5,6 C 6,1 C 91 % 1034,0 hPa 0,0 l/m 0 min 0 min 0 W/m 0,0 km/h (0 Bft) 93,48 %
26.09.2018 01:58 7,1 C 5,6 C 6,1 C 91 % 1033,9 hPa 0,0 l/m 0 min 0 min 0 W/m 0,0 km/h (0 Bft) 95,74 %
26.09.2018 02:00 7,1 C 5,6 C 5,6 C 91 % 1033,9 hPa 0,0 l/m 0 min 0 min 0 W/m 0,0 km/h (0 Bft) 95,74 %
26.09.2018 02:02 7,1 C 5,6 C 5,6 C 91 % 1034,0 hPa 0,0 l/m 0 min 0 min 0 W/m 0,0 km/h (0 Bft) 95,74 %
26.09.2018 02:04 7,0 C 5,6 C 5,6 C 91 % 1034,0 hPa 0,0 l/m 0 min 0 min 0 W/m 0,0 km/h (0 Bft) 95,74 %
26.09.2018 02:06 6,9 C 5,6 C 5,6 C 91 % 1034,0 hPa 0,0 l/m 0 min 0 min 0 W/m 0,0 km/h (0 Bft) 93,62 %
26.09.2018 02:08 6,9 C 5,6 C 5,6 C 91 % 1034,0 hPa 0,0 l/m 0 min 0 min 0 W/m 0,0 km/h (0 Bft) 93,62 %
26.09.2018 02:10 6,9 C 5,6 C 5,6 C 91 % 1034,0 hPa 0,0 l/m 0 min 0 min 0 W/m 0,0 km/h (0 Bft) 91,49 %
26.09.2018 02:12 6,9 C 6,1 C 5,6 C 91 % 1033,9 hPa 0,0 l/m 0 min 0 min 0 W/m 0,0 km/h (0 Bft) 93,62 %
26.09.2018 02:14 6,9 C 6,1 C 5,6 C 91 % 1033,9 hPa 0,0 l/m 0 min 0 min 0 W/m 6,4 km/h (2 Bft) 93,62 %
26.09.2018 02:16 6,8 C 6,1 C 6,1 C 91 % 1033,9 hPa 0,0 l/m 0 min 0 min 0 W/m 0,0 km/h (0 Bft) 93,62 %
26.09.2018 02:18 6,8 C 6,1 C 6,1 C 91 % 1033,9 hPa 0,0 l/m 0 min 0 min 0 W/m 6,4 km/h (2 Bft) 93,48 %
26.09.2018 02:20 6,8 C 6,1 C 6,1 C 91 % 1033,9 hPa 0,0 l/m 0 min 0 min 0 W/m 3,2 km/h (1 Bft) 93,62 %
26.09.2018 02:22 6,8 C 6,1 C 6,1 C 91 % 1034,0 hPa 0,0 l/m 0 min 0 min 0 W/m 3,2 km/h (1 Bft) 91,49 %
26.09.2018 02:24 6,8 C 6,1 C 6,1 C 91 % 1034,0 hPa 0,0 l/m 0 min 0 min 0 W/m 6,4 km/h (2 Bft) 93,62 %
26.09.2018 02:26 6,7 C 6,1 C 6,1 C 91 % 1033,9 hPa 0,0 l/m 0 min 0 min 0 W/m 0,0 km/h (0 Bft) 89,36 %
26.09.2018 02:28 6,7 C 6,1 C 6,1 C 91 % 1033,9 hPa 0,0 l/m 0 min 0 min 0 W/m 3,2 km/h (1 Bft) 95,74 %
26.09.2018 02:30 6,7 C 6,1 C 6,1 C 91 % 1033,9 hPa 0,0 l/m 0 min 0 min 0 W/m 3,2 km/h (1 Bft) 93,48 %
26.09.2018 02:32 6,7 C 6,1 C 6,7 C 91 % 1033,9 hPa 0,0 l/m 0 min 0 min 0 W/m 6,4 km/h (2 Bft) 95,74 %
26.09.2018 02:34 6,7 C 6,1 C 6,7 C 91 % 1033,7 hPa 0,0 l/m 0 min 0 min 0 W/m 3,2 km/h (1 Bft) 95,74 %
26.09.2018 02:36 6,7 C 6,7 C 6,7 C 91 % 1033,8 hPa 0,0 l/m 0 min 0 min 0 W/m 6,4 km/h (2 Bft) 95,74 %
26.09.2018 02:38 6,7 C 6,7 C 6,7 C 91 % 1033,7 hPa 0,0 l/m 0 min 0 min 0 W/m 6,4 km/h (2 Bft) 95,74 %
26.09.2018 02:40 6,7 C 6,7 C 6,1 C 92 % 1033,7 hPa 0,0 l/m 0 min 0 min 0 W/m 3,2 km/h (1 Bft) 95,74 %
26.09.2018 02:42 6,7 C 6,7 C 6,7 C 92 % 1033,7 hPa 0,0 l/m 0 min 0 min 0 W/m 3,2 km/h (1 Bft) 95,65 %
26.09.2018 02:44 6,7 C 6,7 C 6,1 C 92 % 1033,5 hPa 0,0 l/m 0 min 0 min 0 W/m 3,2 km/h (1 Bft) 95,74 %
26.09.2018 02:46 6,7 C 6,7 C 6,1 C 92 % 1033,6 hPa 0,0 l/m 0 min 0 min 0 W/m 3,2 km/h (1 Bft) 95,74 %
26.09.2018 02:48 6,7 C 6,7 C 6,1 C 92 % 1033,5 hPa 0,0 l/m 0 min 0 min 0 W/m 3,2 km/h (1 Bft) 97,87 %
26.09.2018 02:50 6,7 C 6,7 C 6,7 C 92 % 1033,6 hPa 0,0 l/m 0 min 0 min 0 W/m 9,7 km/h (2 Bft) 97,87 %
26.09.2018 02:52 6,7 C 6,7 C 6,7 C 92 % 1033,5 hPa 0,0 l/m 0 min 0 min 0 W/m 6,4 km/h (2 Bft) 97,87 %
26.09.2018 02:54 6,7 C 6,7 C 6,7 C 92 % 1033,5 hPa 0,0 l/m 0 min 0 min 0 W/m 9,7 km/h (2 Bft) 97,83 %
26.09.2018 02:56 6,7 C 6,7 C 6,7 C 92 % 1033,4 hPa 0,0 l/m 0 min 0 min 0 W/m 9,7 km/h (2 Bft) 95,74 %
26.09.2018 02:58 6,7 C 6,7 C 6,7 C 92 % 1033,4 hPa 0,0 l/m 0 min 0 min 0 W/m 6,4 km/h (2 Bft) 95,74 %
26.09.2018 03:00 6,7 C 6,7 C 6,7 C 92 % 1033,4 hPa 0,0 l/m 0 min 0 min 0 W/m 6,4 km/h (2 Bft) 97,87 %
26.09.2018 03:02 6,7 C 6,7 C 6,7 C 92 % 1033,4 hPa 0,0 l/m 0 min 0 min 0 W/m 12,9 km/h (3 Bft) 95,74 %
26.09.2018 03:04 6,7 C 6,7 C 6,7 C 92 % 1033,2 hPa 0,0 l/m 0 min 0 min 0 W/m 9,7 km/h (2 Bft) 97,87 %
26.09.2018 03:06 6,7 C 6,7 C 6,7 C 92 % 1033,2 hPa 0,0 l/m 0 min 0 min 0 W/m 6,4 km/h (2 Bft) 95,83 %
26.09.2018 03:08 6,7 C 6,7 C 6,7 C 92 % 1033,2 hPa 0,0 l/m 0 min 0 min 0 W/m 9,7 km/h (2 Bft) 97,83 %
26.09.2018 03:10 6,7 C 6,7 C 6,7 C 92 % 1033,2 hPa 0,0 l/m 0 min 0 min 0 W/m 6,4 km/h (2 Bft) 97,87 %
26.09.2018 03:12 6,7 C 6,7 C 6,7 C 92 % 1033,2 hPa 0,0 l/m 0 min 0 min 0 W/m 3,2 km/h (1 Bft) 95,74 %
26.09.2018 03:14 6,7 C 6,7 C 6,7 C 92 % 1033,2 hPa 0,0 l/m 0 min 0 min 0 W/m 6,4 km/h (2 Bft) 95,74 %
26.09.2018 03:16 6,7 C 6,7 C 6,7 C 93 % 1033,2 hPa 0,0 l/m 0 min 0 min 0 W/m 6,4 km/h (2 Bft) 97,87 %
26.09.2018 03:18 6,7 C 6,7 C 6,7 C 93 % 1033,2 hPa 0,0 l/m 0 min 0 min 0 W/m 6,4 km/h (2 Bft) 100,00 %
26.09.2018 03:20 6,7 C 6,7 C 6,7 C 93 % 1033,2 hPa 0,0 l/m 0 min 0 min 0 W/m 9,7 km/h (2 Bft) 97,87 %
26.09.2018 03:22 6,7 C 6,7 C 6,7 C 93 % 1033,1 hPa 0,0 l/m 0 min 0 min 0 W/m 6,4 km/h (2 Bft) 100,00 %
26.09.2018 03:24 6,7 C 6,7 C 6,7 C 93 % 1033,1 hPa 0,0 l/m 0 min 0 min 0 W/m 6,4 km/h (2 Bft) 100,00 %
26.09.2018 03:26 6,7 C 6,7 C 6,7 C 93 % 1033,1 hPa 0,0 l/m 0 min 0 min 0 W/m 6,4 km/h (2 Bft) 100,00 %
26.09.2018 03:28 6,7 C 6,7 C 6,7 C 93 % 1033,2 hPa 0,0 l/m 0 min 0 min 0 W/m 9,7 km/h (2 Bft) 97,83 %
26.09.2018 03:30 6,7 C 6,7 C 6,7 C 93 % 1033,1 hPa 0,0 l/m 0 min 0 min 0 W/m 3,2 km/h (1 Bft) 97,87 %
26.09.2018 03:32 6,7 C 6,7 C 6,7 C 93 % 1033,1 hPa 0,0 l/m 0 min 0 min 0 W/m 6,4 km/h (2 Bft) 97,87 %
26.09.2018 03:34 6,7 C 6,7 C 6,7 C 93 % 1033,1 hPa 0,0 l/m 0 min 0 min 0 W/m 6,4 km/h (2 Bft) 100,00 %
26.09.2018 03:36 6,7 C 6,7 C 6,7 C 93 % 1033,1 hPa 0,0 l/m 0 min 0 min 0 W/m 3,2 km/h (1 Bft) 100,00 %
26.09.2018 03:38 6,7 C 6,1 C 6,7 C 93 % 1033,2 hPa 0,0 l/m 0 min 0 min 0 W/m 3,2 km/h (1 Bft) 100,00 %
26.09.2018 03:40 6,7 C 6,1 C 6,1 C 93 % 1033,1 hPa 0,0 l/m 0 min 0 min 0 W/m 3,2 km/h (1 Bft) 97,83 %
26.09.2018 03:42 6,7 C 6,1 C 6,1 C 92 % 1033,2 hPa 0,0 l/m 0 min 0 min 0 W/m 3,2 km/h (1 Bft) 100,00 %
26.09.2018 03:44 6,7 C 6,1 C 6,1 C 93 % 1033,2 hPa 0,0 l/m 0 min 0 min 0 W/m 6,4 km/h (2 Bft) 97,87 %
26.09.2018 03:46 6,7 C 6,1 C 6,1 C 93 % 1033,1 hPa 0,0 l/m 0 min 0 min 0 W/m 6,4 km/h (2 Bft) 100,00 %
26.09.2018 03:48 6,7 C 6,1 C 6,7 C 93 % 1033,1 hPa 0,0 l/m 0 min 0 min 0 W/m 6,4 km/h (2 Bft) 100,00 %
26.09.2018 03:50 6,7 C 6,1 C 6,7 C 93 % 1033,0 hPa 0,0 l/m 0 min 0 min 0 W/m 6,4 km/h (2 Bft) 100,00 %
26.09.2018 03:52 6,7 C 6,1 C 6,7 C 93 % 1032,9 hPa 0,0 l/m 0 min 0 min 0 W/m 6,4 km/h (2 Bft) 97,87 %
26.09.2018 03:54 6,7 C 6,7 C 6,7 C 93 % 1033,0 hPa 0,0 l/m 0 min 0 min 0 W/m 9,7 km/h (2 Bft) 100,00 %
26.09.2018 03:56 6,7 C 6,7 C 6,7 C 93 % 1032,9 hPa 0,0 l/m 0 min 0 min 0 W/m 6,4 km/h (2 Bft) 100,00 %
26.09.2018 03:58 6,7 C 6,7 C 6,7 C 92 % 1032,8 hPa 0,0 l/m 0 min 0 min 0 W/m 6,4 km/h (2 Bft) 100,00 %
26.09.2018 04:00 6,7 C 6,1 C 6,7 C 92 % 1032,8 hPa 0,0 l/m 0 min 0 min 0 W/m 6,4 km/h (2 Bft) 97,87 %
26.09.2018 04:02 6,7 C 6,1 C 6,7 C 93 % 1032,8 hPa 0,0 l/m 0 min 0 min 0 W/m 6,4 km/h (2 Bft) 100,00 %
26.09.2018 04:04 6,7 C 6,1 C 6,7 C 92 % 1032,8 hPa 0,0 l/m 0 min 0 min 0 W/m 9,7 km/h (2 Bft) 100,00 %
26.09.2018 04:06 6,7 C 6,1 C 6,7 C 93 % 1032,8 hPa 0,0 l/m 0 min 0 min 0 W/m 6,4 km/h (2 Bft) 100,00 %
26.09.2018 04:08 6,7 C 6,1 C 6,7 C 92 % 1032,8 hPa 0,0 l/m 0 min 0 min 0 W/m 6,4 km/h (2 Bft) 100,00 %
26.09.2018 04:10 6,7 C 6,1 C 6,7 C 92 % 1032,8 hPa 0,0 l/m 0 min 0 min 0 W/m 9,7 km/h (2 Bft) 95,74 %
26.09.2018 04:12 6,7 C 6,1 C 6,7 C 92 % 1032,8 hPa 0,0 l/m 0 min 0 min 0 W/m 6,4 km/h (2 Bft) 100,00 %
26.09.2018 04:14 6,7 C 6,1 C 6,7 C 92 % 1032,9 hPa 0,0 l/m 0 min 0 min 0 W/m 6,4 km/h (2 Bft) 95,65 %
26.09.2018 04:19 6,6 C 6,1 C 6,7 C 92 % 1032,9 hPa 0,0 l/m 0 min 0 min 0 W/m 6,4 km/h (2 Bft) 100,00 %
26.09.2018 04:20 6,6 C 6,1 C 6,7 C 92 % 1032,9 hPa 0,0 l/m 0 min 0 min 0 W/m 6,4 km/h (2 Bft) 95,65 %
26.09.2018 04:22 6,6 C 6,1 C 6,1 C 92 % 1032,9 hPa 0,0 l/m 0 min 0 min 0 W/m 6,4 km/h (2 Bft) 97,87 %
26.09.2018 04:24 6,6 C 6,1 C 6,1 C 92 % 1032,9 hPa 0,0 l/m 0 min 0 min 0 W/m 6,4 km/h (2 Bft) 97,87 %
26.09.2018 04:26 6,6 C 6,1 C 6,1 C 92 % 1032,8 hPa 0,0 l/m 0 min 0 min 0 W/m 3,2 km/h (1 Bft) 97,83 %
26.09.2018 04:28 6,6 C 6,1 C 6,1 C 92 % 1032,8 hPa 0,0 l/m 0 min 0 min 0 W/m 6,4 km/h (2 Bft) 97,87 %
26.09.2018 04:30 6,6 C 6,1 C 6,1 C 92 % 1032,8 hPa 0,0 l/m 0 min 0 min 0 W/m 6,4 km/h (2 Bft) 97,87 %
26.09.2018 04:32 6,6 C 6,1 C 6,1 C 92 % 1032,8 hPa 0,0 l/m 0 min 0 min 0 W/m 3,2 km/h (1 Bft) 97,87 %
26.09.2018 04:34 6,5 C 6,1 C 6,1 C 92 % 1032,8 hPa 0,0 l/m 0 min 0 min 0 W/m 6,4 km/h (2 Bft) 97,87 %
26.09.2018 04:36 6,5 C 6,1 C 6,1 C 92 % 1032,7 hPa 0,0 l/m 0 min 0 min 0 W/m 6,4 km/h (2 Bft) 97,92 %
26.09.2018 04:38 6,5 C 6,1 C 6,1 C 92 % 1032,6 hPa 0,0 l/m 0 min 0 min 0 W/m 6,4 km/h (2 Bft) 95,65 %
26.09.2018 04:40 6,5 C 6,1 C 6,1 C 92 % 1032,6 hPa 0,0 l/m 0 min 0 min 0 W/m 6,4 km/h (2 Bft) 95,74 %
26.09.2018 04:42 6,5 C 6,1 C 6,1 C 92 % 1032,7 hPa 0,0 l/m 0 min 0 min 0 W/m 3,2 km/h (1 Bft) 97,87 %
26.09.2018 04:44 6,4 C 6,1 C 6,1 C 92 % 1032,8 hPa 0,0 l/m 0 min 0 min 0 W/m 6,4 km/h (2 Bft) 97,87 %
26.09.2018 04:46 6,4 C 6,1 C 6,1 C 92 % 1032,7 hPa 0,0 l/m 0 min 0 min 0 W/m 3,2 km/h (1 Bft) 95,74 %
26.09.2018 04:48 6,4 C 6,1 C 6,1 C 92 % 1032,7 hPa 0,0 l/m 0 min 0 min 0 W/m 6,4 km/h (2 Bft) 95,74 %
26.09.2018 04:50 6,4 C 6,1 C 6,1 C 92 % 1032,7 hPa 0,0 l/m 0 min 0 min 0 W/m 3,2 km/h (1 Bft) 97,83 %
26.09.2018 04:52 6,4 C 6,1 C 6,1 C 92 % 1032,7 hPa 0,0 l/m 0 min 0 min 0 W/m 6,4 km/h (2 Bft) 97,87 %
26.09.2018 04:54 6,4 C 6,1 C 6,1 C 92 % 1032,7 hPa 0,0 l/m 0 min 0 min 0 W/m 3,2 km/h (1 Bft) 95,74 %
26.09.2018 04:56 6,4 C 5,6 C 5,6 C 92 % 1032,7 hPa 0,0 l/m 0 min 0 min 0 W/m 3,2 km/h (1 Bft) 97,87 %
26.09.2018 04:58 6,4 C 5,6 C 5,6 C 92 % 1032,7 hPa 0,0 l/m 0 min 0 min 0 W/m 6,4 km/h (2 Bft) 97,87 %
26.09.2018 05:00 6,4 C 5,6 C 5,6 C 92 % 1032,8 hPa 0,0 l/m 0 min 0 min 0 W/m 6,4 km/h (2 Bft) 97,83 %
26.09.2018 05:02 6,4 C 5,6 C 6,1 C 92 % 1032,7 hPa 0,0 l/m 0 min 0 min 0 W/m 6,4 km/h (2 Bft) 95,74 %
26.09.2018 05:04 6,4 C 5,6 C 6,1 C 92 % 1032,7 hPa 0,0 l/m 0 min 0 min 0 W/m 6,4 km/h (2 Bft) 97,87 %
26.09.2018 05:06 6,3 C 5,6 C 6,1 C 92 % 1032,7 hPa 0,0 l/m 0 min 0 min 0 W/m 6,4 km/h (2 Bft) 97,87 %
26.09.2018 05:08 6,3 C 5,6 C 6,1 C 92 % 1032,8 hPa 0,0 l/m 0 min 0 min 0 W/m 6,4 km/h (2 Bft) 97,87 %
26.09.2018 05:10 6,3 C 5,6 C 5,6 C 92 % 1032,8 hPa 0,0 l/m 0 min 0 min 0 W/m 6,4 km/h (2 Bft) 97,87 %
26.09.2018 05:12 6,3 C 5,6 C 5,6 C 92 % 1032,7 hPa 0,0 l/m 0 min 0 min 0 W/m 3,2 km/h (1 Bft) 97,83 %
26.09.2018 05:14 6,3 C 5,6 C 5,6 C 92 % 1032,7 hPa 0,0 l/m 0 min 0 min 0 W/m 3,2 km/h (1 Bft) 97,87 %
26.09.2018 05:16 6,3 C 5,6 C 5,6 C 92 % 1032,7 hPa 0,0 l/m 0 min 0 min 0 W/m 3,2 km/h (1 Bft) 97,87 %
26.09.2018 05:18 6,3 C 5,6 C 5,6 C 92 % 1032,8 hPa 0,0 l/m 0 min 0 min 0 W/m 3,2 km/h (1 Bft) 95,74 %
26.09.2018 05:20 6,2 C 5,6 C 5,6 C 91 % 1032,8 hPa 0,0 l/m 0 min 0 min 0 W/m 3,2 km/h (1 Bft) 95,74 %
26.09.2018 05:22 6,2 C 5,6 C 5,6 C 91 % 1032,8 hPa 0,0 l/m 0 min 0 min 0 W/m 6,4 km/h (2 Bft) 97,92 %
26.09.2018 05:24 6,2 C 5,6 C 5,6 C 91 % 1032,8 hPa 0,0 l/m 0 min 0 min 0 W/m 3,2 km/h (1 Bft) 97,83 %
26.09.2018 05:26 6,2 C 5,6 C 5,6 C 91 % 1032,8 hPa 0,0 l/m 0 min 0 min 0 W/m 6,4 km/h (2 Bft) 97,87 %
26.09.2018 05:28 6,2 C 5,6 C 5,6 C 91 % 1032,7 hPa 0,0 l/m 0 min 0 min 0 W/m 6,4 km/h (2 Bft) 97,87 %
26.09.2018 05:30 6,2 C 5,6 C 5,6 C 91 % 1032,6 hPa 0,0 l/m 0 min 0 min 0 W/m 9,7 km/h (2 Bft) 97,87 %
26.09.2018 05:32 6,2 C 5,6 C 5,6 C 91 % 1032,6 hPa 0,0 l/m 0 min 0 min 0 W/m 6,4 km/h (2 Bft) 95,74 %
26.09.2018 05:34 6,2 C 5,6 C 5,6 C 91 % 1032,6 hPa 0,0 l/m 0 min 0 min 0 W/m 6,4 km/h (2 Bft) 97,87 %
26.09.2018 05:36 6,2 C 5,6 C 5,6 C 91 % 1032,6 hPa 0,0 l/m 0 min 0 min 0 W/m 9,7 km/h (2 Bft) 97,83 %
26.09.2018 05:38 6,1 C 5,6 C 5,6 C 92 % 1032,6 hPa 0,0 l/m 0 min 0 min 0 W/m 6,4 km/h (2 Bft) 100,00 %
26.09.2018 05:40 6,1 C 5,6 C 5,6 C 92 % 1032,5 hPa 0,0 l/m 0 min 0 min 0 W/m 6,4 km/h (2 Bft) 100,00 %
26.09.2018 05:42 6,1 C 5,6 C 5,6 C 92 % 1032,6 hPa 0,0 l/m 0 min 0 min 0 W/m 9,7 km/h (2 Bft) 100,00 %
26.09.2018 05:44 6,1 C 5,6 C 5,6 C 92 % 1032,6 hPa 0,0 l/m 0 min 0 min 0 W/m 6,4 km/h (2 Bft) 100,00 %
26.09.2018 05:46 6,1 C 5,6 C 5,6 C 92 % 1032,6 hPa 0,0 l/m 0 min 0 min 0 W/m 6,4 km/h (2 Bft) 97,87 %
26.09.2018 05:48 6,1 C 5,6 C 5,6 C 92 % 1032,5 hPa 0,0 l/m 0 min 0 min 0 W/m 9,7 km/h (2 Bft) 97,83 %
26.09.2018 05:50 6,1 C 5,6 C 5,6 C 92 % 1032,5 hPa 0,0 l/m 0 min 0 min 0 W/m 9,7 km/h (2 Bft) 100,00 %
26.09.2018 05:52 6,1 C 5,6 C 6,1 C 92 % 1032,5 hPa 0,0 l/m 0 min 0 min 0 W/m 9,7 km/h (2 Bft) 97,87 %
26.09.2018 05:54 6,1 C 5,6 C 6,1 C 92 % 1032,5 hPa 0,0 l/m 0 min 0 min 0 W/m 9,7 km/h (2 Bft) 97,87 %
26.09.2018 05:56 6,1 C 5,6 C 6,1 C 92 % 1032,4 hPa 0,0 l/m 0 min 0 min 0 W/m 9,7 km/h (2 Bft) 100,00 %
26.09.2018 05:58 6,1 C 5,6 C 6,1 C 92 % 1032,5 hPa 0,0 l/m 0 min 0 min 0 W/m 6,4 km/h (2 Bft) 100,00 %
26.09.2018 06:00 6,1 C 5,6 C 6,1 C 92 % 1032,6 hPa 0,0 l/m 0 min 0 min 0 W/m 6,4 km/h (2 Bft) 100,00 %
26.09.2018 06:02 6,1 C 5,6 C 6,1 C 92 % 1032,6 hPa 0,0 l/m 0 min 0 min 0 W/m 9,7 km/h (2 Bft) 100,00 %
26.09.2018 06:04 6,1 C 5,6 C 6,1 C 92 % 1032,6 hPa 0,0 l/m 0 min 0 min 0 W/m 6,4 km/h (2 Bft) 100,00 %
26.09.2018 06:06 6,1 C 5,6 C 6,1 C 92 % 1032,5 hPa 0,0 l/m 0 min 0 min 0 W/m 6,4 km/h (2 Bft) 100,00 %
26.09.2018 06:08 6,1 C 5,6 C 6,1 C 92 % 1032,6 hPa 0,0 l/m 0 min 0 min 0 W/m 6,4 km/h (2 Bft) 100,00 %
26.09.2018 06:10 6,1 C 5,6 C 5,6 C 92 % 1032,6 hPa 0,0 l/m 0 min 0 min 0 W/m 6,4 km/h (2 Bft) 100,00 %
26.09.2018 06:12 6,0 C 5,6 C 5,6 C 92 % 1032,5 hPa 0,0 l/m 0 min 0 min 0 W/m 9,7 km/h (2 Bft) 97,87 %
26.09.2018 06:14 6,0 C 5,6 C 5,6 C 92 % 1032,5 hPa 0,0 l/m 0 min 0 min 0 W/m 9,7 km/h (2 Bft) 100,00 %
26.09.2018 06:16 6,0 C 5,6 C 6,1 C 92 % 1032,5 hPa 0,0 l/m 0 min 0 min 0 W/m 6,4 km/h (2 Bft) 100,00 %
26.09.2018 06:18 6,0 C 5,6 C 5,6 C 92 % 1032,6 hPa 0,0 l/m 0 min 0 min 0 W/m 6,4 km/h (2 Bft) 97,87 %
26.09.2018 06:20 6,0 C 5,6 C 5,6 C 92 % 1032,6 hPa 0,0 l/m 0 min 0 min 0 W/m 6,4 km/h (2 Bft) 97,87 %
26.09.2018 06:22 6,0 C 5,6 C 5,6 C 92 % 1032,6 hPa 0,0 l/m 0 min 0 min 0 W/m 6,4 km/h (2 Bft) 100,00 %
26.09.2018 06:24 6,0 C 5,6 C 6,1 C 92 % 1032,7 hPa 0,0 l/m 0 min 0 min 0 W/m 6,4 km/h (2 Bft) 97,87 %
26.09.2018 06:26 6,0 C 5,6 C 5,6 C 92 % 1032,6 hPa 0,0 l/m 0 min 0 min 0 W/m 6,4 km/h (2 Bft) 95,74 %
26.09.2018 06:28 6,0 C 5,6 C 5,6 C 92 % 1032,6 hPa 0,0 l/m 0 min 0 min 0 W/m 6,4 km/h (2 Bft) 95,74 %
26.09.2018 06:30 6,0 C 5,6 C 5,6 C 92 % 1032,6 hPa 0,0 l/m 0 min 0 min 0 W/m 6,4 km/h (2 Bft) 95,74 %
26.09.2018 06:32 6,0 C 5,6 C 5,6 C 92 % 1032,6 hPa 0,0 l/m 0 min 0 min 0 W/m 6,4 km/h (2 Bft) 95,74 %
26.09.2018 06:34 6,0 C 5,6 C 5,6 C 92 % 1032,6 hPa 0,0 l/m 0 min 0 min 0 W/m 3,2 km/h (1 Bft) 95,65 %
26.09.2018 06:36 6,0 C 5,6 C 5,6 C 92 % 1032,6 hPa 0,0 l/m 0 min 0 min 0 W/m 6,4 km/h (2 Bft) 95,74 %
26.09.2018 06:38 6,0 C 5,6 C 5,6 C 92 % 1032,6 hPa 0,0 l/m 0 min 0 min 0 W/m 6,4 km/h (2 Bft) 95,74 %
26.09.2018 06:40 6,0 C 5,6 C 5,6 C 92 % 1032,6 hPa 0,0 l/m 0 min 0 min 0 W/m 6,4 km/h (2 Bft) 93,62 %
26.09.2018 06:42 6,0 C 5,6 C 5,6 C 92 % 1032,5 hPa 0,0 l/m 0 min 0 min 0 W/m 6,4 km/h (2 Bft) 95,74 %
26.09.2018 06:44 6,0 C 5,6 C 5,6 C 92 % 1032,5 hPa 0,0 l/m 0 min 0 min 0 W/m 9,7 km/h (2 Bft) 95,74 %
26.09.2018 06:46 6,0 C 5,6 C 5,6 C 92 % 1032,6 hPa 0,0 l/m 0 min 0 min 0 W/m 9,7 km/h (2 Bft) 91,30 %
26.09.2018 06:48 6,0 C 5,6 C 5,6 C 92 % 1032,5 hPa 0,0 l/m 0 min 0 min 0 W/m 6,4 km/h (2 Bft) 95,74 %
26.09.2018 06:50 6,0 C 5,6 C 5,6 C 92 % 1032,5 hPa 0,0 l/m 0 min 0 min 0 W/m 9,7 km/h (2 Bft) 93,62 %
26.09.2018 06:52 6,0 C 5,6 C 5,6 C 92 % 1032,5 hPa 0,0 l/m 0 min 0 min 0 W/m 6,4 km/h (2 Bft) 95,74 %
26.09.2018 06:54 6,0 C 5,6 C 5,6 C 92 % 1032,4 hPa 0,0 l/m 0 min 0 min 0 W/m 9,7 km/h (2 Bft) 93,62 %
26.09.2018 06:56 6,0 C 5,6 C 5,6 C 92 % 1032,4 hPa 0,0 l/m 0 min 0 min 0 W/m 9,7 km/h (2 Bft) 95,74 %
26.09.2018 06:58 6,0 C 5,6 C 5,6 C 92 % 1032,4 hPa 0,0 l/m 0 min 0 min 0 W/m 6,4 km/h (2 Bft) 95,65 %
26.09.2018 07:00 6,0 C 5,6 C 5,6 C 92 % 1032,4 hPa 0,0 l/m 0 min 0 min 0 W/m 6,4 km/h (2 Bft) 95,74 %
26.09.2018 07:02 6,0 C 5,6 C 5,6 C 92 % 1032,5 hPa 0,0 l/m 0 min 0 min 0 W/m 9,7 km/h (2 Bft) 95,74 %
26.09.2018 07:04 6,0 C 5,6 C 5,6 C 92 % 1032,5 hPa 0,0 l/m 0 min 0 min 0 W/m 6,4 km/h (2 Bft) 93,62 %
26.09.2018 07:08 6,0 C 5,6 C 5,6 C 92 % 1032,6 hPa 0,0 l/m 0 min 0 min 0 W/m 9,7 km/h (2 Bft) 95,70 %
26.09.2018 07:10 6,0 C 5,6 C 5,6 C 92 % 1032,6 hPa 0,0 l/m 0 min 0 min 0 W/m 3,2 km/h (1 Bft) 97,87 %
26.09.2018 07:12 6,0 C 5,6 C 5,6 C 92 % 1032,6 hPa 0,0 l/m 0 min 0 min 0 W/m 3,2 km/h (1 Bft) 97,87 %
26.09.2018 07:14 6,0 C 5,6 C 5,6 C 92 % 1032,6 hPa 0,0 l/m 0 min 0 min 0 W/m 3,2 km/h (1 Bft) 97,87 %
26.09.2018 07:16 6,0 C 5,6 C 5,6 C 92 % 1032,6 hPa 0,0 l/m 0 min 0 min 0 W/m 3,2 km/h (1 Bft) 97,87 %
26.09.2018 07:18 6,0 C 5,6 C 5,6 C 92 % 1032,5 hPa 0,0 l/m 0 min 0 min 0 W/m 6,4 km/h (2 Bft) 97,87 %
26.09.2018 07:20 6,0 C 5,6 C 5,6 C 92 % 1032,6 hPa 0,0 l/m 0 min 0 min 0 W/m 6,4 km/h (2 Bft) 97,83 %
26.09.2018 07:22 6,0 C 5,6 C 5,6 C 92 % 1032,6 hPa 0,0 l/m 0 min 0 min 0 W/m 9,7 km/h (2 Bft) 97,87 %
26.09.2018 07:24 6,0 C 5,6 C 5,6 C 92 % 1032,5 hPa 0,0 l/m 0 min 0 min 0 W/m 6,4 km/h (2 Bft) 97,87 %
26.09.2018 07:26 6,0 C 5,6 C 5,6 C 92 % 1032,6 hPa 0,0 l/m 0 min 0 min 0 W/m 6,4 km/h (2 Bft) 97,87 %
26.09.2018 07:28 6,0 C 5,6 C 5,6 C 92 % 1032,6 hPa 0,0 l/m 0 min 0 min 0 W/m 6,4 km/h (2 Bft) 95,74 %
26.09.2018 07:30 6,0 C 5,6 C 5,6 C 92 % 1032,6 hPa 0,0 l/m 0 min 0 min 0 W/m 9,7 km/h (2 Bft) 97,87 %
26.09.2018 07:32 6,0 C 5,6 C 5,6 C 92 % 1032,6 hPa 0,0 l/m 0 min 0 min 0 W/m 6,4 km/h (2 Bft) 95,65 %
26.09.2018 07:34 6,0 C 5,6 C 5,6 C 92 % 1032,5 hPa 0,0 l/m 0 min 0 min 4 W/m 9,7 km/h (2 Bft) 100,00 %
26.09.2018 07:36 6,0 C 5,6 C 6,1 C 92 % 1032,6 hPa 0,0 l/m 0 min 0 min 5 W/m 6,4 km/h (2 Bft) 97,87 %
26.09.2018 07:38 6,0 C 5,6 C 6,1 C 92 % 1032,6 hPa 0,0 l/m 0 min 0 min 5 W/m 6,4 km/h (2 Bft) 97,87 %
26.09.2018 07:40 6,0 C 5,6 C 6,1 C 92 % 1032,6 hPa 0,0 l/m 0 min 0 min 7 W/m 6,4 km/h (2 Bft) 95,74 %
26.09.2018 07:42 6,0 C 5,6 C 6,1 C 92 % 1032,6 hPa 0,0 l/m 0 min 0 min 9 W/m 6,4 km/h (2 Bft) 95,74 %
26.09.2018 07:44 6,0 C 5,6 C 6,1 C 92 % 1032,6 hPa 0,0 l/m 0 min 0 min 9 W/m 9,7 km/h (2 Bft) 97,83 %
26.09.2018 07:46 6,0 C 5,6 C 6,1 C 92 % 1032,6 hPa 0,0 l/m 0 min 0 min 11 W/m 9,7 km/h (2 Bft) 95,74 %
26.09.2018 07:48 6,0 C 5,6 C 6,1 C 92 % 1032,5 hPa 0,0 l/m 0 min 0 min 12 W/m 9,7 km/h (2 Bft) 97,87 %
26.09.2018 07:50 6,0 C 5,6 C 6,1 C 92 % 1032,5 hPa 0,0 l/m 0 min 0 min 13 W/m 6,4 km/h (2 Bft) 97,87 %
26.09.2018 07:52 6,0 C 5,6 C 6,1 C 92 % 1032,6 hPa 0,0 l/m 0 min 0 min 15 W/m 6,4 km/h (2 Bft) 93,75 %
26.09.2018 07:54 6,0 C 5,6 C 6,1 C 92 % 1032,5 hPa 0,0 l/m 0 min 0 min 16 W/m 9,7 km/h (2 Bft) 95,74 %
26.09.2018 07:56 6,0 C 5,6 C 6,1 C 92 % 1032,5 hPa 0,0 l/m 0 min 0 min 18 W/m 6,4 km/h (2 Bft) 97,83 %
26.09.2018 07:58 6,0 C 5,6 C 5,6 C 92 % 1032,5 hPa 0,0 l/m 0 min 0 min 19 W/m 9,7 km/h (2 Bft) 97,87 %
26.09.2018 08:00 6,0 C 5,6 C 6,1 C 92 % 1032,5 hPa 0,0 l/m 0 min 0 min 21 W/m 9,7 km/h (2 Bft) 97,87 %
26.09.2018 08:02 6,0 C 5,6 C 6,1 C 92 % 1032,5 hPa 0,0 l/m 0 min 0 min 23 W/m 9,7 km/h (2 Bft) 97,87 %
26.09.2018 08:04 6,0 C 5,6 C 6,1 C 92 % 1032,5 hPa 0,0 l/m 0 min 0 min 25 W/m 9,7 km/h (2 Bft) 97,87 %
26.09.2018 08:06 6,1 C 6,1 C 6,1 C 92 % 1032,5 hPa 0,0 l/m 0 min 0 min 26 W/m 6,4 km/h (2 Bft) 95,74 %
26.09.2018 08:08 6,1 C 6,1 C 6,1 C 92 % 1032,5 hPa 0,0 l/m 0 min 0 min 28 W/m 6,4 km/h (2 Bft) 97,83 %
26.09.2018 08:10 6,1 C 6,1 C 6,1 C 92 % 1032,5 hPa 0,0 l/m 0 min 0 min 31 W/m 6,4 km/h (2 Bft) 97,87 %
26.09.2018 08:12 6,1 C 6,1 C 6,1 C 92 % 1032,5 hPa 0,0 l/m 0 min 0 min 33 W/m 9,7 km/h (2 Bft) 95,74 %
26.09.2018 08:14 6,1 C 6,1 C 6,1 C 92 % 1032,4 hPa 0,0 l/m 0 min 0 min 34 W/m 9,7 km/h (2 Bft) 97,87 %
26.09.2018 08:16 6,1 C 6,1 C 6,1 C 92 % 1032,4 hPa 0,0 l/m 0 min 0 min 37 W/m 9,7 km/h (2 Bft) 97,87 %
26.09.2018 08:18 6,1 C 6,1 C 6,1 C 92 % 1032,4 hPa 0,0 l/m 0 min 0 min 40 W/m 6,4 km/h (2 Bft) 97,83 %
26.09.2018 08:20 6,1 C 6,1 C 6,1 C 92 % 1032,4 hPa 0,0 l/m 0 min 0 min 42 W/m 3,2 km/h (1 Bft) 97,87 %
26.09.2018 08:22 6,1 C 6,1 C 6,1 C 92 % 1032,3 hPa 0,0 l/m 0 min 0 min 45 W/m 12,9 km/h (3 Bft) 97,87 %
26.09.2018 08:24 6,1 C 6,1 C 6,1 C 92 % 1032,4 hPa 0,0 l/m 0 min 0 min 48 W/m 9,7 km/h (2 Bft) 97,87 %
26.09.2018 08:26 6,2 C 6,1 C 6,1 C 92 % 1032,4 hPa 0,0 l/m 0 min 0 min 51 W/m 9,7 km/h (2 Bft) 100,00 %
26.09.2018 08:28 6,2 C 6,1 C 6,1 C 92 % 1032,3 hPa 0,0 l/m 0 min 0 min 53 W/m 9,7 km/h (2 Bft) 97,87 %
26.09.2018 08:30 6,2 C 6,1 C 6,1 C 92 % 1032,3 hPa 0,0 l/m 0 min 0 min 55 W/m 9,7 km/h (2 Bft) 100,00 %
26.09.2018 08:32 6,2 C 6,1 C 6,1 C 92 % 1032,3 hPa 0,0 l/m 0 min 0 min 59 W/m 9,7 km/h (2 Bft) 100,00 %
26.09.2018 08:34 6,2 C 6,7 C 6,1 C 92 % 1032,3 hPa 0,0 l/m 0 min 0 min 61 W/m 9,7 km/h (2 Bft) 100,00 %
26.09.2018 08:36 6,2 C 6,7 C 6,1 C 93 % 1032,3 hPa 0,0 l/m 0 min 0 min 63 W/m 12,9 km/h (3 Bft) 95,65 %
26.09.2018 08:38 6,3 C 6,7 C 6,1 C 93 % 1032,3 hPa 0,0 l/m 0 min 0 min 65 W/m 9,7 km/h (2 Bft) 93,62 %
26.09.2018 08:40 6,3 C 6,7 C 6,7 C 93 % 1032,3 hPa 0,0 l/m 0 min 0 min 68 W/m 9,7 km/h (2 Bft) 97,87 %
26.09.2018 08:42 6,3 C 6,7 C 6,7 C 93 % 1032,4 hPa 0,0 l/m 0 min 0 min 70 W/m 6,4 km/h (2 Bft) 97,87 %
26.09.2018 08:44 6,3 C 6,7 C 6,7 C 93 % 1032,4 hPa 0,0 l/m 0 min 0 min 72 W/m 6,4 km/h (2 Bft) 97,87 %
26.09.2018 08:46 6,4 C 6,7 C 6,7 C 93 % 1032,4 hPa 0,0 l/m 0 min 0 min 76 W/m 12,9 km/h (3 Bft) 97,87 %
26.09.2018 08:48 6,4 C 6,7 C 6,7 C 93 % 1032,3 hPa 0,0 l/m 0 min 0 min 78 W/m 9,7 km/h (2 Bft) 100,00 %
26.09.2018 08:50 6,4 C 6,7 C 6,7 C 93 % 1032,3 hPa 0,0 l/m 0 min 0 min 84 W/m 9,7 km/h (2 Bft) 100,00 %
26.09.2018 08:52 6,4 C 6,7 C 6,7 C 93 % 1032,3 hPa 0,0 l/m 0 min 0 min 89 W/m 9,7 km/h (2 Bft) 97,87 %
26.09.2018 08:54 6,4 C 6,7 C 6,7 C 93 % 1032,4 hPa 0,0 l/m 0 min 0 min 93 W/m 9,7 km/h (2 Bft) 97,87 %
26.09.2018 08:56 6,5 C 7,2 C 6,7 C 93 % 1032,5 hPa 0,0 l/m 0 min 0 min 97 W/m 3,2 km/h (1 Bft) 95,74 %
26.09.2018 08:58 6,6 C 7,2 C 6,7 C 93 % 1032,4 hPa 0,0 l/m 0 min 0 min 99 W/m 9,7 km/h (2 Bft) 97,87 %
26.09.2018 09:00 6,6 C 7,2 C 6,7 C 93 % 1032,4 hPa 0,0 l/m 0 min 0 min 103 W/m 6,4 km/h (2 Bft) 97,83 %
26.09.2018 09:02 6,6 C 7,2 C 6,7 C 93 % 1032,4 hPa 0,0 l/m 0 min 0 min 106 W/m 3,2 km/h (1 Bft) 97,87 %
26.09.2018 09:04 6,7 C 7,2 C 6,7 C 93 % 1032,3 hPa 0,0 l/m 0 min 0 min 109 W/m 9,7 km/h (2 Bft) 97,87 %
26.09.2018 09:06 6,7 C 7,8 C 6,7 C 93 % 1032,3 hPa 0,0 l/m 0 min 0 min 110 W/m 6,4 km/h (2 Bft) 97,87 %
26.09.2018 09:08 6,7 C 7,8 C 6,7 C 93 % 1032,4 hPa 0,0 l/m 0 min 0 min 111 W/m 6,4 km/h (2 Bft) 97,87 %
26.09.2018 09:10 6,8 C 7,8 C 7,2 C 93 % 1032,4 hPa 0,0 l/m 0 min 0 min 113 W/m 9,7 km/h (2 Bft) 95,74 %
26.09.2018 09:12 6,8 C 7,8 C 7,2 C 93 % 1032,4 hPa 0,0 l/m 0 min 0 min 113 W/m 9,7 km/h (2 Bft) 97,83 %
26.09.2018 09:14 6,9 C 7,8 C 7,2 C 93 % 1032,5 hPa 0,0 l/m 0 min 0 min 114 W/m 6,4 km/h (2 Bft) 97,87 %
26.09.2018 09:16 6,9 C 7,8 C 7,2 C 93 % 1032,5 hPa 0,0 l/m 0 min 0 min 114 W/m 9,7 km/h (2 Bft) 95,74 %
26.09.2018 09:18 7,0 C 7,8 C 7,2 C 93 % 1032,6 hPa 0,0 l/m 0 min 0 min 115 W/m 12,9 km/h (3 Bft) 97,87 %
26.09.2018 09:20 7,1 C 8,3 C 7,2 C 93 % 1032,6 hPa 0,0 l/m 0 min 0 min 116 W/m 9,7 km/h (2 Bft) 97,87 %
26.09.2018 09:22 7,1 C 8,3 C 7,2 C 93 % 1032,6 hPa 0,0 l/m 0 min 0 min 118 W/m 6,4 km/h (2 Bft) 96,23 %
26.09.2018 09:24 7,1 C 8,3 C 7,2 C 93 % 1032,6 hPa 0,0 l/m 0 min 0 min 119 W/m 6,4 km/h (2 Bft) 97,87 %
26.09.2018 09:26 7,2 C 8,3 C 7,2 C 93 % 1032,6 hPa 0,0 l/m 0 min 0 min 120 W/m 9,7 km/h (2 Bft) 95,74 %
26.09.2018 09:28 7,2 C 8,3 C 7,2 C 93 % 1032,6 hPa 0,0 l/m 0 min 0 min 121 W/m 6,4 km/h (2 Bft) 97,83 %
26.09.2018 09:30 7,3 C 8,9 C 7,2 C 93 % 1032,6 hPa 0,0 l/m 0 min 0 min 122 W/m 3,2 km/h (1 Bft) 97,87 %
26.09.2018 09:32 7,3 C 8,9 C 7,2 C 93 % 1032,6 hPa 0,0 l/m 0 min 0 min 123 W/m 9,7 km/h (2 Bft) 97,87 %
26.09.2018 09:34 7,4 C 8,9 C 7,2 C 93 % 1032,6 hPa 0,0 l/m 0 min 0 min 123 W/m 9,7 km/h (2 Bft) 97,87 %
26.09.2018 09:36 7,4 C 8,9 C 7,8 C 93 % 1032,6 hPa 0,0 l/m 0 min 0 min 123 W/m 9,7 km/h (2 Bft) 95,74 %
26.09.2018 09:38 7,5 C 8,9 C 7,8 C 93 % 1032,6 hPa 0,0 l/m 0 min 0 min 125 W/m 9,7 km/h (2 Bft) 97,87 %
26.09.2018 09:40 7,6 C 8,9 C 7,8 C 93 % 1032,7 hPa 0,0 l/m 0 min 0 min 128 W/m 12,9 km/h (3 Bft) 100,00 %
26.09.2018 09:42 7,6 C 8,9 C 7,8 C 92 % 1032,6 hPa 0,0 l/m 0 min 0 min 133 W/m 6,4 km/h (2 Bft) 100,00 %
26.09.2018 09:44 7,7 C 8,9 C 7,8 C 92 % 1032,7 hPa 0,0 l/m 0 min 0 min 149 W/m 9,7 km/h (2 Bft) 100,00 %
26.09.2018 09:46 7,7 C 8,9 C 7,8 C 92 % 1032,7 hPa 0,0 l/m 2 min 0 min 169 W/m 9,7 km/h (2 Bft) 100,00 %
26.09.2018 09:48 7,8 C 9,4 C 7,8 C 92 % 1032,6 hPa 0,0 l/m 0 min 0 min 168 W/m 6,4 km/h (2 Bft) 100,00 %
26.09.2018 09:50 7,8 C 9,4 C 7,8 C 92 % 1032,7 hPa 0,0 l/m 0 min 0 min 167 W/m 6,4 km/h (2 Bft) 100,00 %
26.09.2018 09:52 7,9 C 9,4 C 7,8 C 92 % 1032,7 hPa 0,0 l/m 0 min 0 min 168 W/m 9,7 km/h (2 Bft) 100,00 %
26.09.2018 09:54 7,9 C 9,4 C 7,8 C 92 % 1032,7 hPa 0,0 l/m 0 min 0 min 168 W/m 9,7 km/h (2 Bft) 97,14 %
26.09.2018 09:56 8,0 C 10,0 C 7,8 C 92 % 1032,7 hPa 0,0 l/m 0 min 0 min 170 W/m 3,2 km/h (1 Bft) 100,00 %
26.09.2018 09:58 8,1 C 10,6 C 7,8 C 92 % 1032,7 hPa 0,0 l/m 0 min 0 min 177 W/m 6,4 km/h (2 Bft) 97,87 %
26.09.2018 10:00 8,1 C 10,6 C 7,8 C 92 % 1032,7 hPa 0,0 l/m 2 min 0 min 189 W/m 9,7 km/h (2 Bft) 97,87 %
26.09.2018 10:02 8,2 C 11,1 C 8,3 C 91 % 1032,7 hPa 0,0 l/m 2 min 0 min 194 W/m 12,9 km/h (3 Bft) 97,87 %
26.09.2018 10:04 8,2 C 11,1 C 8,3 C 92 % 1032,7 hPa 0,0 l/m 0 min 0 min 187 W/m 6,4 km/h (2 Bft) 97,87 %
26.09.2018 10:06 8,3 C 11,7 C 8,3 C 91 % 1032,7 hPa 0,0 l/m 2 min 0 min 192 W/m 6,4 km/h (2 Bft) 97,87 %
26.09.2018 10:08 8,4 C 11,7 C 8,3 C 91 % 1032,7 hPa 0,0 l/m 0 min 0 min 180 W/m 6,4 km/h (2 Bft) 95,74 %
26.09.2018 10:10 8,4 C 11,7 C 8,3 C 91 % 1032,6 hPa 0,0 l/m 0 min 0 min 183 W/m 6,4 km/h (2 Bft) 97,87 %
26.09.2018 10:12 8,6 C 11,7 C 8,3 C 91 % 1032,6 hPa 0,0 l/m 0 min 0 min 181 W/m 3,2 km/h (1 Bft) 95,74 %
26.09.2018 10:14 8,6 C 11,7 C 8,3 C 91 % 1032,6 hPa 0,0 l/m 0 min 0 min 166 W/m 6,4 km/h (2 Bft) 95,74 %
26.09.2018 10:16 8,7 C 12,2 C 8,3 C 91 % 1032,6 hPa 0,0 l/m 0 min 0 min 142 W/m 6,4 km/h (2 Bft) 91,49 %
26.09.2018 10:18 8,8 C 12,2 C 8,3 C 91 % 1032,6 hPa 0,0 l/m 0 min 0 min 130 W/m 9,7 km/h (2 Bft) 93,48 %
26.09.2018 10:20 8,9 C 12,2 C 8,9 C 90 % 1032,7 hPa 0,0 l/m 0 min 0 min 124 W/m 6,4 km/h (2 Bft) 95,74 %
26.09.2018 10:22 9,1 C 12,8 C 8,9 C 90 % 1032,7 hPa 0,0 l/m 0 min 0 min 120 W/m 6,4 km/h (2 Bft) 95,74 %
26.09.2018 10:24 9,2 C 13,3 C 8,9 C 90 % 1032,7 hPa 0,0 l/m 0 min 0 min 116 W/m 9,7 km/h (2 Bft) 95,74 %
26.09.2018 10:26 9,3 C 13,9 C 8,9 C 89 % 1032,7 hPa 0,0 l/m 0 min 0 min 114 W/m 9,7 km/h (2 Bft) 95,74 %
26.09.2018 10:28 9,4 C 15,0 C 8,9 C 89 % 1032,8 hPa 0,0 l/m 0 min 0 min 114 W/m 6,4 km/h (2 Bft) 95,74 %
26.09.2018 10:30 9,6 C 16,7 C 8,9 C 89 % 1032,7 hPa 0,0 l/m 0 min 0 min 116 W/m 6,4 km/h (2 Bft) 95,65 %
26.09.2018 10:32 9,7 C 16,7 C 8,9 C 89 % 1032,7 hPa 0,0 l/m 0 min 0 min 116 W/m 6,4 km/h (2 Bft) 93,62 %
26.09.2018 10:34 9,8 C 16,7 C 8,9 C 88 % 1032,7 hPa 0,0 l/m 0 min 0 min 115 W/m 9,7 km/h (2 Bft) 95,74 %
26.09.2018 10:36 10,0 C 16,1 C 9,4 C 88 % 1032,7 hPa 0,0 l/m 0 min 0 min 118 W/m 19,3 km/h (3 Bft) 95,74 %
26.09.2018 10:38 10,2 C 15,6 C 9,4 C 87 % 1032,7 hPa 0,0 l/m 0 min 0 min 121 W/m 12,9 km/h (3 Bft) 95,74 %
26.09.2018 10:40 10,3 C 15,6 C 9,4 C 87 % 1032,7 hPa 0,0 l/m 0 min 0 min 124 W/m 12,9 km/h (3 Bft) 97,83 %
26.09.2018 10:42 10,4 C 15,0 C 9,4 C 85 % 1032,6 hPa 0,0 l/m 0 min 0 min 137 W/m 12,9 km/h (3 Bft) 97,87 %
26.09.2018 10:44 10,6 C 16,1 C 9,4 C 85 % 1032,6 hPa 0,0 l/m 0 min 0 min 163 W/m 12,9 km/h (3 Bft) 100,00 %
26.09.2018 10:46 10,7 C 16,7 C 9,4 C 85 % 1032,6 hPa 0,0 l/m 0 min 0 min 198 W/m 9,7 km/h (2 Bft) 100,00 %
26.09.2018 10:48 10,9 C 17,8 C 9,4 C 84 % 1032,6 hPa 0,0 l/m 2 min 0 min 274 W/m 6,4 km/h (2 Bft) 97,87 %
26.09.2018 10:50 11,0 C 17,8 C 9,4 C 84 % 1032,6 hPa 0,0 l/m 2 min 0 min 375 W/m 6,4 km/h (2 Bft) 97,87 %
26.09.2018 10:52 11,2 C 18,3 C 10,0 C 83 % 1032,6 hPa 0,0 l/m 2 min 0 min 409 W/m 9,7 km/h (2 Bft) 97,83 %
26.09.2018 10:54 11,4 C 18,9 C 10,0 C 82 % 1032,6 hPa 0,0 l/m 2 min 0 min 416 W/m 9,7 km/h (2 Bft) 100,00 %
26.09.2018 10:56 11,6 C 18,9 C 10,0 C 82 % 1032,6 hPa 0,0 l/m 2 min 0 min 422 W/m 9,7 km/h (2 Bft) 97,87 %
26.09.2018 10:58 11,7 C 19,4 C 10,0 C 82 % 1032,6 hPa 0,0 l/m 2 min 0 min 400 W/m 6,4 km/h (2 Bft) 100,00 %
26.09.2018 11:00 11,9 C 18,9 C 10,0 C 81 % 1032,6 hPa 0,0 l/m 2 min 0 min 404 W/m 6,4 km/h (2 Bft) 100,00 %
26.09.2018 11:02 12,1 C 18,3 C 10,0 C 80 % 1032,5 hPa 0,0 l/m 2 min 0 min 370 W/m 12,9 km/h (3 Bft) 97,87 %
26.09.2018 11:04 12,2 C 17,2 C 10,6 C 80 % 1032,5 hPa 0,0 l/m 2 min 0 min 363 W/m 12,9 km/h (3 Bft) 100,00 %
26.09.2018 11:06 12,3 C 17,8 C 10,6 C 78 % 1032,5 hPa 0,0 l/m 2 min 0 min 365 W/m 12,9 km/h (3 Bft) 100,00 %
26.09.2018 11:08 12,4 C 17,2 C 10,6 C 78 % 1032,4 hPa 0,0 l/m 2 min 0 min 350 W/m 12,9 km/h (3 Bft) 100,00 %
26.09.2018 11:10 12,6 C 17,2 C 10,6 C 77 % 1032,4 hPa 0,0 l/m 2 min 0 min 358 W/m 16,1 km/h (3 Bft) 100,00 %
26.09.2018 11:12 12,7 C 17,2 C 10,6 C 76 % 1032,5 hPa 0,0 l/m 2 min 0 min 356 W/m 16,1 km/h (3 Bft) 97,87 %
26.09.2018 11:14 12,7 C 16,7 C 10,6 C 75 % 1032,4 hPa 0,0 l/m 2 min 0 min 311 W/m 12,9 km/h (3 Bft) 100,00 %
26.09.2018 11:16 12,8 C 16,7 C 10,6 C 75 % 1032,4 hPa 0,0 l/m 2 min 0 min 281 W/m 9,7 km/h (2 Bft) 100,00 %
26.09.2018 11:18 12,9 C 16,7 C 10,6 C 75 % 1032,3 hPa 0,0 l/m 0 min 0 min 234 W/m 9,7 km/h (2 Bft) 97,87 %
26.09.2018 11:20 12,9 C 16,1 C 10,6 C 75 % 1032,3 hPa 0,0 l/m 0 min 0 min 217 W/m 9,7 km/h (2 Bft) 100,00 %
26.09.2018 11:22 13,0 C 15,6 C 10,6 C 74 % 1032,3 hPa 0,0 l/m 0 min 0 min 197 W/m 9,7 km/h (2 Bft) 100,00 %
26.09.2018 11:24 13,0 C 15,0 C 10,6 C 74 % 1032,2 hPa 0,0 l/m 0 min 0 min 174 W/m 12,9 km/h (3 Bft) 100,00 %
26.09.2018 11:26 13,1 C 15,0 C 10,6 C 73 % 1032,3 hPa 0,0 l/m 0 min 0 min 175 W/m 9,7 km/h (2 Bft) 100,00 %
26.09.2018 11:28 13,1 C 15,0 C 10,6 C 73 % 1032,3 hPa 0,0 l/m 0 min 0 min 178 W/m 9,7 km/h (2 Bft) 100,00 %
26.09.2018 11:30 13,1 C 16,1 C 10,6 C 73 % 1032,3 hPa 0,0 l/m 0 min 0 min 186 W/m 6,4 km/h (2 Bft) 100,00 %
26.09.2018 11:32 13,1 C 17,8 C 10,6 C 73 % 1032,4 hPa 0,0 l/m 0 min 0 min 229 W/m 6,4 km/h (2 Bft) 100,00 %
26.09.2018 11:34 13,2 C 18,3 C 10,6 C 74 % 1032,4 hPa 0,0 l/m 0 min 0 min 248 W/m 12,9 km/h (3 Bft) 100,00 %
26.09.2018 11:36 13,2 C 19,4 C 10,6 C 74 % 1032,4 hPa 0,0 l/m 0 min 0 min 252 W/m 6,4 km/h (2 Bft) 100,00 %
26.09.2018 11:38 13,3 C 19,4 C 10,6 C 74 % 1032,3 hPa 0,0 l/m 0 min 0 min 265 W/m 12,9 km/h (3 Bft) 100,00 %
26.09.2018 11:40 13,4 C 21,1 C 10,6 C 75 % 1032,4 hPa 0,0 l/m 0 min 0 min 209 W/m 9,7 km/h (2 Bft) 100,00 %
26.09.2018 11:42 13,5 C 20,0 C 11,1 C 73 % 1032,5 hPa 0,0 l/m 0 min 0 min 231 W/m 9,7 km/h (2 Bft) 100,00 %
26.09.2018 11:44 13,7 C 21,1 C 11,1 C 73 % 1032,5 hPa 0,0 l/m 0 min 0 min 167 W/m 9,7 km/h (2 Bft) 100,00 %
26.09.2018 11:46 13,8 C 20,6 C 11,1 C 72 % 1032,4 hPa 0,0 l/m 0 min 0 min 157 W/m 12,9 km/h (3 Bft) 100,00 %
26.09.2018 11:48 13,9 C 20,6 C 11,7 C 71 % 1032,5 hPa 0,0 l/m 0 min 0 min 143 W/m 6,4 km/h (2 Bft) 100,00 %
26.09.2018 11:50 14,1 C 21,1 C 11,7 C 69 % 1032,5 hPa 0,0 l/m 0 min 0 min 149 W/m 9,7 km/h (2 Bft) 100,00 %
26.09.2018 11:52 14,2 C 22,8 C 11,7 C 70 % 1032,5 hPa 0,0 l/m 0 min 0 min 152 W/m 9,7 km/h (2 Bft) 100,00 %
26.09.2018 11:54 14,3 C 23,9 C 11,7 C 69 % 1032,6 hPa 0,0 l/m 0 min 0 min 179 W/m 9,7 km/h (2 Bft) 100,00 %
26.09.2018 11:56 14,4 C 22,8 C 11,7 C 69 % 1032,5 hPa 0,0 l/m 0 min 0 min 203 W/m 6,4 km/h (2 Bft) 100,00 %
26.09.2018 11:58 14,6 C 24,4 C 11,7 C 69 % 1032,5 hPa 0,0 l/m 0 min 0 min 161 W/m 6,4 km/h (2 Bft) 100,00 %
26.09.2018 12:00 14,7 C 21,7 C 11,7 C 67 % 1032,5 hPa 0,0 l/m 0 min 0 min 139 W/m 6,4 km/h (2 Bft) 100,00 %
26.09.2018 12:02 14,8 C 19,4 C 11,7 C 66 % 1032,5 hPa 0,0 l/m 0 min 0 min 124 W/m 6,4 km/h (2 Bft) 100,00 %
26.09.2018 12:04 14,9 C 19,4 C 11,7 C 66 % 1032,5 hPa 0,0 l/m 0 min 0 min 123 W/m 6,4 km/h (2 Bft) 100,00 %
26.09.2018 12:07 14,9 C 16,7 C 11,7 C 65 % 1032,5 hPa 0,0 l/m 0 min 0 min 117 W/m 6,4 km/h (2 Bft) 100,00 %
26.09.2018 12:08 14,9 C 16,7 C 11,7 C 64 % 1032,5 hPa 0,0 l/m 0 min 0 min 133 W/m 6,4 km/h (2 Bft) 95,65 %
26.09.2018 12:10 15,0 C 18,9 C 11,7 C 65 % 1032,4 hPa 0,0 l/m 0 min 0 min 232 W/m 9,7 km/h (2 Bft) 97,87 %
26.09.2018 12:12 15,0 C 19,4 C 11,7 C 65 % 1032,5 hPa 0,0 l/m 0 min 0 min 188 W/m 9,7 km/h (2 Bft) 95,74 %
26.09.2018 12:14 15,1 C 20,0 C 11,7 C 64 % 1032,3 hPa 0,0 l/m 0 min 0 min 122 W/m 6,4 km/h (2 Bft) 95,65 %
26.09.2018 12:16 15,1 C 20,6 C 11,7 C 65 % 1032,3 hPa 0,0 l/m 0 min 0 min 118 W/m 9,7 km/h (2 Bft) 91,49 %
26.09.2018 12:18 15,2 C 19,4 C 11,7 C 65 % 1032,4 hPa 0,0 l/m 0 min 0 min 104 W/m 9,7 km/h (2 Bft) 95,74 %
26.09.2018 12:20 15,2 C 18,9 C 11,7 C 66 % 1032,3 hPa 0,0 l/m 0 min 0 min 115 W/m 9,7 km/h (2 Bft) 95,74 %
26.09.2018 12:22 15,2 C 18,9 C 11,7 C 65 % 1032,4 hPa 0,0 l/m 0 min 0 min 112 W/m 9,7 km/h (2 Bft) 95,83 %
26.09.2018 12:24 15,3 C 18,9 C 11,7 C 65 % 1032,4 hPa 0,0 l/m 0 min 0 min 130 W/m 12,9 km/h (3 Bft) 95,74 %
26.09.2018 12:26 15,3 C 18,9 C 11,7 C 65 % 1032,4 hPa 0,0 l/m 0 min 0 min 85 W/m 12,9 km/h (3 Bft) 95,65 %
26.09.2018 12:28 15,3 C 19,4 C 11,7 C 65 % 1032,4 hPa 0,0 l/m 0 min 0 min 91 W/m 6,4 km/h (2 Bft) 95,74 %
26.09.2018 12:30 15,3 C 18,3 C 11,7 C 65 % 1032,4 hPa 0,0 l/m 0 min 0 min 104 W/m 6,4 km/h (2 Bft) 95,74 %
26.09.2018 12:32 15,4 C 20,0 C 11,7 C 65 % 1032,3 hPa 0,0 l/m 0 min 0 min 176 W/m 3,2 km/h (1 Bft) 91,49 %
26.09.2018 12:34 15,4 C 22,2 C 11,7 C 67 % 1032,4 hPa 0,0 l/m 0 min 0 min 258 W/m 3,2 km/h (1 Bft) 95,74 %
26.09.2018 12:36 15,5 C 23,3 C 11,7 C 67 % 1032,3 hPa 0,0 l/m 0 min 0 min 164 W/m 9,7 km/h (2 Bft) 95,74 %
26.09.2018 12:38 15,6 C 23,3 C 12,2 C 66 % 1032,4 hPa 0,0 l/m 0 min 0 min 99 W/m 9,7 km/h (2 Bft) 95,65 %
26.09.2018 12:40 15,7 C 22,2 C 12,2 C 65 % 1032,3 hPa 0,0 l/m 0 min 0 min 111 W/m 9,7 km/h (2 Bft) 95,74 %
26.09.2018 12:42 15,7 C 23,3 C 12,2 C 65 % 1032,3 hPa 0,0 l/m 0 min 0 min 95 W/m 3,2 km/h (1 Bft) 93,62 %
26.09.2018 12:44 15,8 C 23,3 C 12,2 C 65 % 1032,3 hPa 0,0 l/m 0 min 0 min 78 W/m 6,4 km/h (2 Bft) 93,62 %
26.09.2018 12:46 15,9 C 22,8 C 12,8 C 64 % 1032,4 hPa 0,0 l/m 0 min 0 min 80 W/m 9,7 km/h (2 Bft) 93,62 %
26.09.2018 12:48 16,0 C 23,9 C 12,8 C 63 % 1032,3 hPa 0,0 l/m 0 min 0 min 83 W/m 9,7 km/h (2 Bft) 95,74 %
26.09.2018 12:50 16,1 C 23,3 C 12,8 C 64 % 1032,3 hPa 0,0 l/m 0 min 0 min 78 W/m 6,4 km/h (2 Bft) 93,48 %
26.09.2018 12:52 16,2 C 22,8 C 12,8 C 63 % 1032,2 hPa 0,0 l/m 0 min 0 min 70 W/m 6,4 km/h (2 Bft) 95,83 %
26.09.2018 12:54 16,3 C 22,2 C 12,8 C 63 % 1032,2 hPa 0,0 l/m 0 min 0 min 70 W/m 9,7 km/h (2 Bft) 97,83 %
26.09.2018 12:56 16,3 C 21,1 C 12,8 C 62 % 1032,2 hPa 0,0 l/m 0 min 0 min 72 W/m 3,2 km/h (1 Bft) 95,74 %
26.09.2018 12:58 16,4 C 18,9 C 12,8 C 62 % 1032,2 hPa 0,0 l/m 0 min 0 min 82 W/m 12,9 km/h (3 Bft) 100,00 %
26.09.2018 13:00 16,5 C 18,3 C 12,8 C 62 % 1032,2 hPa 0,0 l/m 0 min 0 min 181 W/m 6,4 km/h (2 Bft) 100,00 %
26.09.2018 13:02 16,6 C 18,3 C 12,8 C 63 % 1032,1 hPa 0,0 l/m 0 min 0 min 271 W/m 6,4 km/h (2 Bft) 97,87 %
26.09.2018 13:04 16,7 C 17,8 C 12,8 C 63 % 1032,1 hPa 0,0 l/m 2 min 0 min 459 W/m 9,7 km/h (2 Bft) 95,74 %
26.09.2018 13:06 16,7 C 17,8 C 12,8 C 62 % 1032,1 hPa 0,0 l/m 2 min 0 min 415 W/m 9,7 km/h (2 Bft) 97,83 %
26.09.2018 13:08 16,8 C 17,2 C 12,8 C 61 % 1032,0 hPa 0,0 l/m 2 min 0 min 488 W/m 9,7 km/h (2 Bft) 100,00 %
26.09.2018 13:10 16,8 C 16,7 C 13,3 C 61 % 1032,0 hPa 0,0 l/m 2 min 0 min 514 W/m 9,7 km/h (2 Bft) 100,00 %
26.09.2018 13:12 16,9 C 17,2 C 13,3 C 60 % 1032,0 hPa 0,0 l/m 2 min 0 min 467 W/m 9,7 km/h (2 Bft) 100,00 %
26.09.2018 13:14 16,9 C 16,7 C 13,3 C 60 % 1031,9 hPa 0,0 l/m 2 min 0 min 520 W/m 9,7 km/h (2 Bft) 97,87 %
26.09.2018 13:16 16,9 C 16,7 C 12,8 C 60 % 1031,9 hPa 0,0 l/m 2 min 0 min 514 W/m 9,7 km/h (2 Bft) 100,00 %
26.09.2018 13:18 17,0 C 16,7 C 12,8 C 60 % 1031,9 hPa 0,0 l/m 2 min 0 min 415 W/m 12,9 km/h (3 Bft) 97,83 %
26.09.2018 13:20 17,0 C 16,7 C 13,3 C 60 % 1031,9 hPa 0,0 l/m 2 min 0 min 513 W/m 12,9 km/h (3 Bft) 100,00 %
26.09.2018 13:22 17,1 C 16,7 C 13,3 C 61 % 1031,9 hPa 0,0 l/m 2 min 0 min 556 W/m 9,7 km/h (2 Bft) 100,00 %
26.09.2018 13:24 17,1 C 16,7 C 13,3 C 60 % 1032,0 hPa 0,0 l/m 2 min 0 min 536 W/m 9,7 km/h (2 Bft) 97,87 %
26.09.2018 13:26 17,1 C 16,7 C 13,3 C 59 % 1031,9 hPa 0,0 l/m 2 min 0 min 533 W/m 6,4 km/h (2 Bft) 100,00 %
26.09.2018 13:28 17,1 C 16,7 C 13,3 C 59 % 1031,9 hPa 0,0 l/m 2 min 0 min 538 W/m 6,4 km/h (2 Bft) 100,00 %
26.09.2018 13:30 17,1 C 17,2 C 13,3 C 60 % 1031,8 hPa 0,0 l/m 2 min 0 min 561 W/m 12,9 km/h (3 Bft) 100,00 %
26.09.2018 13:32 17,1 C 16,7 C 13,3 C 59 % 1031,9 hPa 0,0 l/m 2 min 0 min 566 W/m 9,7 km/h (2 Bft) 100,00 %
26.09.2018 13:34 17,1 C 16,7 C 13,3 C 59 % 1031,8 hPa 0,0 l/m 2 min 0 min 582 W/m 6,4 km/h (2 Bft) 97,87 %
26.09.2018 13:36 17,1 C 16,7 C 13,3 C 58 % 1031,7 hPa 0,0 l/m 2 min 0 min 585 W/m 9,7 km/h (2 Bft) 97,87 %
26.09.2018 13:38 17,1 C 16,7 C 13,3 C 59 % 1031,8 hPa 0,0 l/m 2 min 0 min 586 W/m 6,4 km/h (2 Bft) 100,00 %
26.09.2018 13:40 17,1 C 16,7 C 13,3 C 59 % 1031,6 hPa 0,0 l/m 2 min 0 min 590 W/m 12,9 km/h (3 Bft) 97,83 %
26.09.2018 13:42 17,1 C 16,7 C 13,3 C 59 % 1031,6 hPa 0,0 l/m 2 min 0 min 585 W/m 12,9 km/h (3 Bft) 95,74 %
26.09.2018 13:44 17,1 C 16,7 C 13,9 C 60 % 1031,6 hPa 0,0 l/m 2 min 0 min 582 W/m 9,7 km/h (2 Bft) 100,00 %
26.09.2018 13:46 17,1 C 17,2 C 13,9 C 59 % 1031,6 hPa 0,0 l/m 2 min 0 min 573 W/m 6,4 km/h (2 Bft) 97,87 %
26.09.2018 13:48 17,1 C 17,2 C 13,9 C 60 % 1031,6 hPa 0,0 l/m 2 min 0 min 588 W/m 6,4 km/h (2 Bft) 100,00 %
26.09.2018 13:50 17,1 C 17,2 C 13,9 C 61 % 1031,6 hPa 0,0 l/m 2 min 0 min 587 W/m 16,1 km/h (3 Bft) 97,87 %
26.09.2018 13:52 17,1 C 17,2 C 13,9 C 59 % 1031,6 hPa 0,0 l/m 2 min 0 min 594 W/m 16,1 km/h (3 Bft) 95,65 %
26.09.2018 13:54 17,2 C 17,8 C 13,9 C 60 % 1031,6 hPa 0,0 l/m 2 min 0 min 598 W/m 6,4 km/h (2 Bft) 97,87 %
26.09.2018 13:56 17,2 C 17,8 C 13,9 C 59 % 1031,5 hPa 0,0 l/m 2 min 0 min 601 W/m 9,7 km/h (2 Bft) 100,00 %
26.09.2018 13:58 17,2 C 17,2 C 13,9 C 59 % 1031,5 hPa 0,0 l/m 2 min 0 min 595 W/m 6,4 km/h (2 Bft) 97,87 %
26.09.2018 14:00 17,2 C 17,2 C 14,4 C 59 % 1031,5 hPa 0,0 l/m 2 min 0 min 602 W/m 6,4 km/h (2 Bft) 95,74 %
26.09.2018 14:02 17,2 C 17,8 C 14,4 C 56 % 1031,5 hPa 0,0 l/m 2 min 0 min 598 W/m 12,9 km/h (3 Bft) 95,74 %
26.09.2018 14:04 17,3 C 17,8 C 14,4 C 57 % 1031,4 hPa 0,0 l/m 2 min 0 min 602 W/m 6,4 km/h (2 Bft) 97,83 %
26.09.2018 14:06 17,3 C 17,8 C 14,4 C 57 % 1031,4 hPa 0,0 l/m 2 min 0 min 602 W/m 9,7 km/h (2 Bft) 97,87 %
26.09.2018 14:08 17,3 C 17,8 C 14,4 C 56 % 1031,4 hPa 0,0 l/m 2 min 0 min 601 W/m 9,7 km/h (2 Bft) 97,87 %
26.09.2018 14:10 17,3 C 17,8 C 14,4 C 56 % 1031,4 hPa 0,0 l/m 2 min 0 min 598 W/m 9,7 km/h (2 Bft) 97,87 %
26.09.2018 14:12 17,4 C 17,8 C 14,4 C 57 % 1031,3 hPa 0,0 l/m 2 min 0 min 599 W/m 6,4 km/h (2 Bft) 97,87 %
26.09.2018 14:14 17,4 C 17,8 C 14,4 C 55 % 1031,3 hPa 0,0 l/m 2 min 0 min 598 W/m 6,4 km/h (2 Bft) 97,87 %
26.09.2018 14:16 17,4 C 17,8 C 14,4 C 56 % 1031,3 hPa 0,0 l/m 2 min 0 min 596 W/m 6,4 km/h (2 Bft) 97,83 %
26.09.2018 14:18 17,4 C 17,8 C 14,4 C 56 % 1031,3 hPa 0,0 l/m 2 min 0 min 595 W/m 9,7 km/h (2 Bft) 97,87 %
26.09.2018 14:20 17,5 C 17,8 C 14,4 C 55 % 1031,3 hPa 0,0 l/m 2 min 0 min 597 W/m 9,7 km/h (2 Bft) 97,87 %
26.09.2018 14:22 17,5 C 17,8 C 15,0 C 55 % 1031,3 hPa 0,0 l/m 2 min 0 min 508 W/m 9,7 km/h (2 Bft) 97,87 %
26.09.2018 14:24 17,6 C 17,8 C 15,0 C 55 % 1031,2 hPa 0,0 l/m 2 min 0 min 398 W/m 12,9 km/h (3 Bft) 97,87 %
26.09.2018 14:26 17,6 C 17,8 C 15,0 C 55 % 1031,2 hPa 0,0 l/m 2 min 0 min 380 W/m 9,7 km/h (2 Bft) 97,87 %
26.09.2018 14:28 17,6 C 17,8 C 14,4 C 55 % 1031,2 hPa 0,0 l/m 0 min 0 min 282 W/m 6,4 km/h (2 Bft) 95,65 %
26.09.2018 14:30 17,6 C 17,8 C 15,0 C 54 % 1031,1 hPa 0,0 l/m 0 min 0 min 235 W/m 9,7 km/h (2 Bft) 97,87 %
26.09.2018 14:32 17,7 C 17,8 C 15,0 C 56 % 1031,2 hPa 0,0 l/m 0 min 0 min 125 W/m 6,4 km/h (2 Bft) 95,74 %
26.09.2018 14:34 17,7 C 17,8 C 15,0 C 53 % 1031,2 hPa 0,0 l/m 0 min 0 min 207 W/m 6,4 km/h (2 Bft) 97,87 %
26.09.2018 14:36 17,7 C 18,3 C 15,0 C 53 % 1031,1 hPa 0,0 l/m 0 min 0 min 267 W/m 6,4 km/h (2 Bft) 100,00 %
26.09.2018 14:38 17,7 C 17,8 C 15,6 C 51 % 1031,0 hPa 0,0 l/m 2 min 0 min 554 W/m 9,7 km/h (2 Bft) 100,00 %
26.09.2018 14:40 17,8 C 18,3 C 15,6 C 52 % 1031,0 hPa 0,0 l/m 2 min 0 min 533 W/m 6,4 km/h (2 Bft) 100,00 %
26.09.2018 14:42 17,8 C 18,3 C 15,6 C 52 % 1031,0 hPa 0,0 l/m 2 min 0 min 441 W/m 9,7 km/h (2 Bft) 100,00 %
26.09.2018 14:44 17,8 C 18,3 C 15,6 C 52 % 1031,0 hPa 0,0 l/m 2 min 0 min 369 W/m 9,7 km/h (2 Bft) 100,00 %
26.09.2018 14:46 17,9 C 18,3 C 15,6 C 51 % 1031,0 hPa 0,0 l/m 2 min 0 min 542 W/m 3,2 km/h (1 Bft) 100,00 %
26.09.2018 14:48 17,9 C 18,9 C 15,6 C 52 % 1031,0 hPa 0,0 l/m 2 min 0 min 576 W/m 3,2 km/h (1 Bft) 100,00 %
26.09.2018 14:50 17,9 C 18,3 C 15,6 C 52 % 1030,9 hPa 0,0 l/m 2 min 0 min 576 W/m 9,7 km/h (2 Bft) 100,00 %
26.09.2018 14:52 18,0 C 18,9 C 15,6 C 52 % 1030,9 hPa 0,0 l/m 2 min 0 min 576 W/m 9,7 km/h (2 Bft) 97,83 %
26.09.2018 14:54 18,1 C 18,9 C 15,6 C 55 % 1030,8 hPa 0,0 l/m 2 min 0 min 574 W/m 9,7 km/h (2 Bft) 100,00 %
26.09.2018 14:56 18,1 C 18,3 C 15,6 C 53 % 1030,7 hPa 0,0 l/m 2 min 0 min 575 W/m 9,7 km/h (2 Bft) 97,87 %
26.09.2018 14:58 18,1 C 18,3 C 15,6 C 54 % 1030,7 hPa 0,0 l/m 2 min 0 min 572 W/m 9,7 km/h (2 Bft) 100,00 %
26.09.2018 15:00 18,2 C 18,3 C 16,1 C 52 % 1030,7 hPa 0,0 l/m 2 min 0 min 571 W/m 9,7 km/h (2 Bft) 100,00 %
26.09.2018 15:02 18,2 C 18,3 C 16,1 C 50 % 1030,7 hPa 0,0 l/m 2 min 0 min 572 W/m 6,4 km/h (2 Bft) 100,00 %
26.09.2018 15:04 18,2 C 18,3 C 16,1 C 51 % 1030,7 hPa 0,0 l/m 2 min 0 min 571 W/m 6,4 km/h (2 Bft) 95,74 %
26.09.2018 15:06 18,2 C 18,3 C 16,1 C 52 % 1030,7 hPa 0,0 l/m 2 min 0 min 569 W/m 9,7 km/h (2 Bft) 100,00 %
26.09.2018 15:08 18,3 C 18,3 C 16,1 C 52 % 1030,6 hPa 0,0 l/m 2 min 0 min 568 W/m 12,9 km/h (3 Bft) 95,74 %
26.09.2018 15:10 18,3 C 18,3 C 16,1 C 51 % 1030,6 hPa 0,0 l/m 2 min 0 min 564 W/m 6,4 km/h (2 Bft) 97,87 %
26.09.2018 15:12 18,3 C 18,3 C 16,1 C 50 % 1030,7 hPa 0,0 l/m 2 min 0 min 565 W/m 6,4 km/h (2 Bft) 97,87 %
26.09.2018 15:14 18,3 C 18,3 C 16,1 C 52 % 1030,6 hPa 0,0 l/m 2 min 0 min 558 W/m 6,4 km/h (2 Bft) 97,83 %
26.09.2018 15:16 18,3 C 18,3 C 16,1 C 51 % 1030,5 hPa 0,0 l/m 2 min 0 min 547 W/m 9,7 km/h (2 Bft) 97,87 %
26.09.2018 15:18 18,4 C 18,9 C 16,1 C 50 % 1030,5 hPa 0,0 l/m 2 min 0 min 541 W/m 9,7 km/h (2 Bft) 97,87 %
26.09.2018 15:20 18,4 C 18,3 C 16,1 C 50 % 1030,5 hPa 0,0 l/m 2 min 0 min 537 W/m 6,4 km/h (2 Bft) 97,87 %
26.09.2018 15:22 18,4 C 18,3 C 16,1 C 50 % 1030,5 hPa 0,0 l/m 2 min 0 min 537 W/m 9,7 km/h (2 Bft) 97,87 %
26.09.2018 15:24 18,4 C 18,3 C 16,1 C 49 % 1030,5 hPa 0,0 l/m 2 min 0 min 544 W/m 6,4 km/h (2 Bft) 97,87 %
26.09.2018 15:26 18,4 C 18,9 C 16,1 C 49 % 1030,5 hPa 0,0 l/m 2 min 0 min 549 W/m 6,4 km/h (2 Bft) 95,65 %
26.09.2018 15:28 18,5 C 18,9 C 16,1 C 50 % 1030,6 hPa 0,0 l/m 2 min 0 min 551 W/m 9,7 km/h (2 Bft) 97,87 %
26.09.2018 15:30 18,5 C 18,9 C 16,1 C 51 % 1030,6 hPa 0,0 l/m 2 min 0 min 541 W/m 6,4 km/h (2 Bft) 97,87 %
26.09.2018 15:32 18,6 C 18,9 C 16,1 C 51 % 1030,6 hPa 0,0 l/m 2 min 0 min 524 W/m 12,9 km/h (3 Bft) 97,87 %
26.09.2018 15:34 18,6 C 18,9 C 16,1 C 51 % 1030,6 hPa 0,0 l/m 2 min 0 min 523 W/m 9,7 km/h (2 Bft) 97,87 %
26.09.2018 15:36 18,6 C 18,9 C 16,1 C 52 % 1030,6 hPa 0,0 l/m 2 min 0 min 506 W/m 9,7 km/h (2 Bft) 97,87 %
26.09.2018 15:38 18,6 C 18,3 C 16,1 C 52 % 1030,6 hPa 0,0 l/m 2 min 0 min 495 W/m 12,9 km/h (3 Bft) 97,83 %
26.09.2018 15:40 18,7 C 18,3 C 16,1 C 51 % 1030,6 hPa 0,0 l/m 2 min 0 min 492 W/m 3,2 km/h (1 Bft) 97,87 %
26.09.2018 15:42 18,7 C 18,3 C 16,1 C 50 % 1030,6 hPa 0,0 l/m 2 min 0 min 491 W/m 12,9 km/h (3 Bft) 95,74 %
26.09.2018 15:44 18,7 C 18,9 C 16,1 C 51 % 1030,6 hPa 0,0 l/m 2 min 0 min 485 W/m 9,7 km/h (2 Bft) 93,62 %
26.09.2018 15:46 18,7 C 18,9 C 16,1 C 51 % 1030,7 hPa 0,0 l/m 2 min 0 min 482 W/m 9,7 km/h (2 Bft) 95,74 %
26.09.2018 15:48 18,7 C 18,9 C 16,1 C 51 % 1030,6 hPa 0,0 l/m 2 min 0 min 486 W/m 12,9 km/h (3 Bft) 95,74 %
26.09.2018 15:50 18,7 C 18,9 C 16,7 C 51 % 1030,6 hPa 0,0 l/m 2 min 0 min 485 W/m 12,9 km/h (3 Bft) 95,65 %
26.09.2018 15:52 18,8 C 18,9 C 16,7 C 50 % 1030,6 hPa 0,0 l/m 2 min 0 min 471 W/m 9,7 km/h (2 Bft) 97,87 %
26.09.2018 15:54 18,8 C 18,9 C 16,7 C 50 % 1030,6 hPa 0,0 l/m 2 min 0 min 477 W/m 6,4 km/h (2 Bft) 97,87 %
26.09.2018 15:56 18,8 C 18,9 C 16,7 C 50 % 1030,5 hPa 0,0 l/m 2 min 0 min 468 W/m 12,9 km/h (3 Bft) 95,74 %
26.09.2018 15:58 18,8 C 18,9 C 16,7 C 49 % 1030,5 hPa 0,0 l/m 2 min 0 min 454 W/m 12,9 km/h (3 Bft) 97,87 %
26.09.2018 16:00 18,8 C 18,3 C 16,1 C 49 % 1030,5 hPa 0,0 l/m 2 min 0 min 473 W/m 6,4 km/h (2 Bft) 97,87 %
26.09.2018 16:02 18,8 C 18,3 C 16,1 C 49 % 1030,3 hPa 0,0 l/m 2 min 0 min 479 W/m 6,4 km/h (2 Bft) 95,65 %
26.09.2018 16:04 18,8 C 18,3 C 16,1 C 49 % 1030,3 hPa 0,0 l/m 2 min 0 min 468 W/m 6,4 km/h (2 Bft) 95,74 %
26.09.2018 16:06 18,8 C 18,3 C 16,1 C 49 % 1030,3 hPa 0,0 l/m 2 min 0 min 475 W/m 9,7 km/h (2 Bft) 97,87 %
26.09.2018 16:08 18,8 C 18,3 C 16,7 C 49 % 1030,2 hPa 0,0 l/m 2 min 0 min 469 W/m 9,7 km/h (2 Bft) 97,87 %
26.09.2018 16:10 18,8 C 18,3 C 16,7 C 48 % 1030,2 hPa 0,0 l/m 2 min 0 min 471 W/m 6,4 km/h (2 Bft) 97,87 %
26.09.2018 16:12 18,8 C 18,9 C 16,1 C 49 % 1030,2 hPa 0,0 l/m 2 min 0 min 477 W/m 9,7 km/h (2 Bft) 95,74 %
26.09.2018 16:14 18,8 C 18,9 C 16,1 C 50 % 1030,2 hPa 0,0 l/m 2 min 0 min 474 W/m 6,4 km/h (2 Bft) 97,83 %
26.09.2018 16:16 18,8 C 18,9 C 16,1 C 50 % 1030,1 hPa 0,0 l/m 2 min 0 min 468 W/m 6,4 km/h (2 Bft) 95,74 %
26.09.2018 16:18 18,9 C 19,4 C 16,1 C 50 % 1030,1 hPa 0,0 l/m 2 min 0 min 465 W/m 9,7 km/h (2 Bft) 89,36 %
26.09.2018 16:20 18,9 C 20,0 C 16,1 C 49 % 1030,0 hPa 0,0 l/m 2 min 0 min 461 W/m 9,7 km/h (2 Bft) 93,62 %
26.09.2018 16:22 18,9 C 20,6 C 16,1 C 50 % 1030,0 hPa 0,0 l/m 2 min 0 min 458 W/m 9,7 km/h (2 Bft) 97,87 %
26.09.2018 16:24 19,0 C 21,7 C 16,1 C 51 % 1030,0 hPa 0,0 l/m 2 min 0 min 453 W/m 9,7 km/h (2 Bft) 95,65 %
26.09.2018 16:26 19,1 C 22,2 C 16,7 C 50 % 1030,0 hPa 0,0 l/m 2 min 0 min 448 W/m 6,4 km/h (2 Bft) 95,74 %
26.09.2018 16:28 19,1 C 22,8 C 16,7 C 50 % 1030,0 hPa 0,0 l/m 2 min 0 min 443 W/m 6,4 km/h (2 Bft) 95,74 %
26.09.2018 16:30 19,1 C 22,8 C 16,1 C 51 % 1030,0 hPa 0,0 l/m 2 min 0 min 439 W/m 6,4 km/h (2 Bft) 95,74 %
26.09.2018 16:32 19,2 C 22,8 C 16,7 C 51 % 1030,0 hPa 0,0 l/m 2 min 0 min 436 W/m 9,7 km/h (2 Bft) 97,87 %
26.09.2018 16:34 19,2 C 22,8 C 16,7 C 50 % 1030,0 hPa 0,0 l/m 2 min 0 min 432 W/m 6,4 km/h (2 Bft) 97,87 %
26.09.2018 16:36 19,3 C 22,8 C 16,7 C 52 % 1029,9 hPa 0,0 l/m 2 min 0 min 427 W/m 6,4 km/h (2 Bft) 97,83 %
26.09.2018 16:38 19,3 C 22,2 C 16,7 C 49 % 1030,0 hPa 0,0 l/m 2 min 0 min 424 W/m 6,4 km/h (2 Bft) 95,74 %
26.09.2018 16:40 19,3 C 22,8 C 16,1 C 51 % 1030,0 hPa 0,0 l/m 2 min 0 min 422 W/m 9,7 km/h (2 Bft) 95,74 %
26.09.2018 16:42 19,4 C 22,8 C 16,7 C 50 % 1029,9 hPa 0,0 l/m 2 min 0 min 416 W/m 9,7 km/h (2 Bft) 97,87 %
26.09.2018 16:44 19,4 C 22,8 C 16,1 C 51 % 1029,9 hPa 0,0 l/m 2 min 0 min 410 W/m 6,4 km/h (2 Bft) 97,87 %
26.09.2018 16:46 19,4 C 22,2 C 16,1 C 51 % 1030,0 hPa 0,0 l/m 2 min 0 min 391 W/m 9,7 km/h (2 Bft) 95,74 %
26.09.2018 16:48 19,4 C 22,2 C 16,1 C 50 % 1029,9 hPa 0,0 l/m 2 min 0 min 372 W/m 6,4 km/h (2 Bft) 97,83 %
26.09.2018 16:50 19,5 C 22,2 C 16,1 C 50 % 1029,9 hPa 0,0 l/m 2 min 0 min 356 W/m 6,4 km/h (2 Bft) 95,74 %
26.09.2018 16:52 19,5 C 22,2 C 16,1 C 51 % 1029,9 hPa 0,0 l/m 2 min 0 min 377 W/m 6,4 km/h (2 Bft) 97,87 %
26.09.2018 16:54 19,6 C 21,7 C 16,1 C 52 % 1029,9 hPa 0,0 l/m 2 min 0 min 384 W/m 6,4 km/h (2 Bft) 97,87 %
26.09.2018 16:56 19,6 C 21,7 C 16,1 C 51 % 1029,8 hPa 0,0 l/m 2 min 0 min 376 W/m 6,4 km/h (2 Bft) 97,87 %
26.09.2018 16:58 19,6 C 22,2 C 16,1 C 52 % 1029,9 hPa 0,0 l/m 2 min 0 min 375 W/m 6,4 km/h (2 Bft) 97,87 %
26.09.2018 17:00 19,6 C 21,1 C 16,7 C 51 % 1030,0 hPa 0,0 l/m 2 min 0 min 371 W/m 6,4 km/h (2 Bft) 97,83 %
26.09.2018 17:02 19,6 C 20,6 C 16,7 C 49 % 1030,1 hPa 0,0 l/m 2 min 0 min 367 W/m 6,4 km/h (2 Bft) 97,87 %
26.09.2018 17:04 19,6 C 20,6 C 16,1 C 49 % 1029,9 hPa 0,0 l/m 2 min 0 min 361 W/m 6,4 km/h (2 Bft) 95,74 %
26.09.2018 17:06 19,6 C 20,0 C 16,1 C 48 % 1029,9 hPa 0,0 l/m 2 min 0 min 357 W/m 3,2 km/h (1 Bft) 98,11 %
26.09.2018 17:08 19,7 C 20,0 C 16,1 C 49 % 1029,9 hPa 0,0 l/m 2 min 0 min 353 W/m 9,7 km/h (2 Bft) 97,87 %
26.09.2018 17:10 19,7 C 21,1 C 16,1 C 49 % 1029,9 hPa 0,0 l/m 2 min 0 min 349 W/m 9,7 km/h (2 Bft) 97,87 %
26.09.2018 17:12 19,7 C 21,1 C 16,1 C 48 % 1029,9 hPa 0,0 l/m 2 min 0 min 345 W/m 6,4 km/h (2 Bft) 95,74 %
26.09.2018 17:14 19,7 C 21,1 C 16,1 C 49 % 1029,9 hPa 0,0 l/m 2 min 0 min 338 W/m 6,4 km/h (2 Bft) 95,74 %
26.09.2018 17:16 19,7 C 21,1 C 16,7 C 49 % 1029,9 hPa 0,0 l/m 2 min 0 min 333 W/m 6,4 km/h (2 Bft) 97,83 %
26.09.2018 17:18 19,7 C 21,1 C 16,7 C 49 % 1029,9 hPa 0,0 l/m 2 min 0 min 327 W/m 6,4 km/h (2 Bft) 97,87 %
26.09.2018 17:20 19,7 C 20,6 C 16,1 C 49 % 1029,9 hPa 0,0 l/m 2 min 0 min 323 W/m 9,7 km/h (2 Bft) 100,00 %
26.09.2018 17:22 19,7 C 21,1 C 16,1 C 49 % 1029,9 hPa 0,0 l/m 2 min 0 min 318 W/m 6,4 km/h (2 Bft) 97,87 %
26.09.2018 17:24 19,7 C 20,6 C 16,1 C 50 % 1029,9 hPa 0,0 l/m 2 min 0 min 313 W/m 6,4 km/h (2 Bft) 100,00 %
26.09.2018 17:26 19,7 C 20,0 C 16,7 C 50 % 1029,9 hPa 0,0 l/m 2 min 0 min 309 W/m 9,7 km/h (2 Bft) 100,00 %
26.09.2018 17:28 19,7 C 20,0 C 16,1 C 50 % 1029,8 hPa 0,0 l/m 2 min 0 min 304 W/m 3,2 km/h (1 Bft) 100,00 %
26.09.2018 17:30 19,6 C 19,4 C 16,1 C 49 % 1029,7 hPa 0,0 l/m 2 min 0 min 300 W/m 9,7 km/h (2 Bft) 93,62 %
26.09.2018 17:32 19,6 C 18,9 C 16,1 C 49 % 1029,7 hPa 0,0 l/m 2 min 0 min 295 W/m 9,7 km/h (2 Bft) 97,87 %
26.09.2018 17:34 19,6 C 18,9 C 16,1 C 50 % 1029,8 hPa 0,0 l/m 2 min 0 min 289 W/m 6,4 km/h (2 Bft) 97,87 %
26.09.2018 17:36 19,6 C 18,9 C 16,1 C 50 % 1029,8 hPa 0,0 l/m 2 min 0 min 285 W/m 6,4 km/h (2 Bft) 97,87 %
26.09.2018 17:38 19,5 C 18,3 C 16,1 C 49 % 1029,7 hPa 0,0 l/m 2 min 0 min 279 W/m 6,4 km/h (2 Bft) 97,87 %
26.09.2018 17:40 19,4 C 18,3 C 16,1 C 49 % 1029,8 hPa 0,0 l/m 2 min 0 min 273 W/m 6,4 km/h (2 Bft) 100,00 %
26.09.2018 17:42 19,4 C 18,3 C 16,7 C 49 % 1029,7 hPa 0,0 l/m 2 min 0 min 265 W/m 9,7 km/h (2 Bft) 95,74 %
26.09.2018 17:44 19,3 C 18,3 C 16,7 C 49 % 1029,8 hPa 0,0 l/m 2 min 0 min 260 W/m 9,7 km/h (2 Bft) 97,87 %
26.09.2018 17:46 19,3 C 17,8 C 16,1 C 49 % 1029,8 hPa 0,0 l/m 2 min 0 min 257 W/m 9,7 km/h (2 Bft) 97,87 %
26.09.2018 17:48 19,3 C 17,8 C 16,1 C 50 % 1029,7 hPa 0,0 l/m 2 min 0 min 250 W/m 6,4 km/h (2 Bft) 97,87 %
26.09.2018 17:50 19,2 C 17,8 C 16,1 C 51 % 1029,7 hPa 0,0 l/m 2 min 0 min 246 W/m 6,4 km/h (2 Bft) 95,74 %
26.09.2018 17:52 19,2 C 17,8 C 16,1 C 50 % 1029,6 hPa 0,0 l/m 2 min 0 min 241 W/m 9,7 km/h (2 Bft) 95,65 %
26.09.2018 17:54 19,1 C 17,8 C 16,1 C 51 % 1029,7 hPa 0,0 l/m 2 min 0 min 235 W/m 6,4 km/h (2 Bft) 97,87 %
26.09.2018 17:56 19,1 C 17,8 C 16,1 C 51 % 1029,7 hPa 0,0 l/m 2 min 0 min 229 W/m 3,2 km/h (1 Bft) 97,87 %
26.09.2018 17:58 19,0 C 17,8 C 16,1 C 51 % 1029,7 hPa 0,0 l/m 2 min 0 min 222 W/m 6,4 km/h (2 Bft) 95,74 %
26.09.2018 18:00 19,0 C 17,8 C 16,1 C 51 % 1029,7 hPa 0,0 l/m 2 min 0 min 171 W/m 9,7 km/h (2 Bft) 95,74 %
26.09.2018 18:02 18,9 C 17,8 C 16,1 C 50 % 1029,7 hPa 0,0 l/m 0 min 0 min 49 W/m 9,7 km/h (2 Bft) 95,74 %
26.09.2018 18:04 18,8 C 17,8 C 16,1 C 51 % 1029,7 hPa 0,0 l/m 0 min 0 min 38 W/m 3,2 km/h (1 Bft) 97,83 %
26.09.2018 18:06 18,8 C 17,8 C 16,1 C 52 % 1029,6 hPa 0,0 l/m 0 min 0 min 39 W/m 6,4 km/h (2 Bft) 97,87 %
26.09.2018 18:08 18,8 C 17,8 C 16,1 C 52 % 1029,6 hPa 0,0 l/m 0 min 0 min 40 W/m 6,4 km/h (2 Bft) 97,87 %
26.09.2018 18:10 18,7 C 17,8 C 16,1 C 52 % 1029,6 hPa 0,0 l/m 0 min 0 min 40 W/m 6,4 km/h (2 Bft) 97,87 %
26.09.2018 18:12 18,7 C 17,8 C 16,1 C 52 % 1029,6 hPa 0,0 l/m 2 min 0 min 100 W/m 6,4 km/h (2 Bft) 100,00 %
26.09.2018 18:14 18,6 C 17,2 C 15,6 C 53 % 1029,6 hPa 0,0 l/m 2 min 0 min 179 W/m 6,4 km/h (2 Bft) 100,00 %
26.09.2018 18:16 18,6 C 17,2 C 15,6 C 53 % 1029,6 hPa 0,0 l/m 2 min 0 min 162 W/m 6,4 km/h (2 Bft) 91,49 %
26.09.2018 18:18 18,5 C 17,2 C 15,6 C 53 % 1029,6 hPa 0,0 l/m 0 min 0 min 73 W/m 3,2 km/h (1 Bft) 95,74 %
26.09.2018 18:20 18,4 C 17,2 C 15,6 C 53 % 1029,5 hPa 0,0 l/m 0 min 0 min 33 W/m 3,2 km/h (1 Bft) 97,87 %
26.09.2018 18:22 18,4 C 17,2 C 15,6 C 53 % 1029,4 hPa 0,0 l/m 0 min 0 min 56 W/m 6,4 km/h (2 Bft) 97,87 %
26.09.2018 18:24 18,4 C 17,2 C 15,0 C 54 % 1029,5 hPa 0,0 l/m 2 min 0 min 128 W/m 6,4 km/h (2 Bft) 97,87 %
26.09.2018 18:26 18,3 C 17,2 C 15,0 C 54 % 1029,5 hPa 0,0 l/m 2 min 0 min 143 W/m 3,2 km/h (1 Bft) 95,65 %
26.09.2018 18:28 18,3 C 17,2 C 15,0 C 55 % 1029,5 hPa 0,0 l/m 2 min 0 min 131 W/m 3,2 km/h (1 Bft) 97,87 %
26.09.2018 18:30 18,3 C 17,2 C 15,0 C 55 % 1029,6 hPa 0,0 l/m 2 min 0 min 67 W/m 3,2 km/h (1 Bft) 97,87 %
26.09.2018 18:32 18,2 C 17,2 C 15,0 C 54 % 1029,5 hPa 0,0 l/m 0 min 0 min 32 W/m 6,4 km/h (2 Bft) 97,87 %
26.09.2018 18:34 18,2 C 16,7 C 15,0 C 55 % 1029,5 hPa 0,0 l/m 0 min 0 min 26 W/m 3,2 km/h (1 Bft) 95,74 %
26.09.2018 18:36 18,2 C 16,7 C 14,4 C 55 % 1029,5 hPa 0,0 l/m 0 min 0 min 26 W/m 6,4 km/h (2 Bft) 95,74 %
26.09.2018 18:38 18,1 C 16,7 C 14,4 C 55 % 1029,5 hPa 0,0 l/m 0 min 0 min 29 W/m 3,2 km/h (1 Bft) 97,83 %
26.09.2018 18:40 18,1 C 16,7 C 14,4 C 56 % 1029,5 hPa 0,0 l/m 0 min 0 min 31 W/m 3,2 km/h (1 Bft) 95,74 %
26.09.2018 18:42 18,1 C 16,7 C 14,4 C 56 % 1029,5 hPa 0,0 l/m 0 min 0 min 25 W/m 3,2 km/h (1 Bft) 97,22 %
26.09.2018 18:44 18,0 C 16,7 C 14,4 C 55 % 1029,5 hPa 0,0 l/m 0 min 0 min 24 W/m 3,2 km/h (1 Bft) 97,87 %
26.09.2018 18:46 17,9 C 16,1 C 13,9 C 56 % 1029,4 hPa 0,0 l/m 0 min 0 min 25 W/m 3,2 km/h (1 Bft) 97,87 %
26.09.2018 18:48 17,9 C 16,1 C 13,9 C 56 % 1029,4 hPa 0,0 l/m 0 min 0 min 22 W/m 3,2 km/h (1 Bft) 97,87 %
26.09.2018 18:50 17,8 C 16,1 C 13,9 C 56 % 1029,4 hPa 0,0 l/m 0 min 0 min 19 W/m 3,2 km/h (1 Bft) 96,55 %
26.09.2018 18:52 17,8 C 16,1 C 13,9 C 56 % 1029,5 hPa 0,0 l/m 0 min 0 min 18 W/m 6,4 km/h (2 Bft) 97,30 %
26.09.2018 18:54 17,7 C 16,1 C 13,9 C 56 % 1029,4 hPa 0,0 l/m 0 min 0 min 18 W/m 3,2 km/h (1 Bft) 97,83 %
26.09.2018 18:56 17,7 C 16,1 C 13,9 C 56 % 1029,4 hPa 0,0 l/m 0 min 0 min 17 W/m 3,2 km/h (1 Bft) 95,74 %
26.09.2018 18:58 17,6 C 16,1 C 13,3 C 56 % 1029,4 hPa 0,0 l/m 0 min 0 min 16 W/m 3,2 km/h (1 Bft) 95,74 %
26.09.2018 19:00 17,6 C 16,1 C 13,3 C 56 % 1029,4 hPa 0,0 l/m 0 min 0 min 16 W/m 0,0 km/h (0 Bft) 97,87 %
26.09.2018 19:02 17,6 C 15,6 C 13,3 C 57 % 1029,5 hPa 0,0 l/m 0 min 0 min 15 W/m 0,0 km/h (0 Bft) 93,62 %
26.09.2018 19:04 17,5 C 15,6 C 13,3 C 57 % 1029,5 hPa 0,0 l/m 0 min 0 min 14 W/m 0,0 km/h (0 Bft) 93,62 %
26.09.2018 19:06 17,4 C 15,6 C 13,3 C 57 % 1029,5 hPa 0,0 l/m 0 min 0 min 12 W/m 0,0 km/h (0 Bft) 97,87 %
26.09.2018 19:08 17,4 C 15,6 C 12,8 C 57 % 1029,5 hPa 0,0 l/m 0 min 0 min 12 W/m 0,0 km/h (0 Bft) 97,87 %
26.09.2018 19:10 17,3 C 15,0 C 12,8 C 58 % 1029,5 hPa 0,0 l/m 0 min 0 min 12 W/m 0,0 km/h (0 Bft) 95,74 %
26.09.2018 19:12 17,3 C 15,0 C 12,8 C 58 % 1029,5 hPa 0,0 l/m 0 min 0 min 11 W/m 0,0 km/h (0 Bft) 95,74 %
26.09.2018 19:14 17,2 C 15,0 C 12,8 C 59 % 1029,5 hPa 0,0 l/m 0 min 0 min 11 W/m 0,0 km/h (0 Bft) 93,62 %
26.09.2018 19:16 17,1 C 14,4 C 12,8 C 59 % 1029,5 hPa 0,0 l/m 0 min 0 min 9 W/m 0,0 km/h (0 Bft) 97,83 %
26.09.2018 19:18 17,0 C 14,4 C 12,8 C 60 % 1029,4 hPa 0,0 l/m 0 min 0 min 9 W/m 0,0 km/h (0 Bft) 97,87 %
26.09.2018 19:20 16,9 C 14,4 C 12,2 C 60 % 1029,5 hPa 0,0 l/m 0 min 0 min 7 W/m 0,0 km/h (0 Bft) 97,87 %
26.09.2018 19:22 16,8 C 13,9 C 12,2 C 60 % 1029,6 hPa 0,0 l/m 0 min 0 min 7 W/m 0,0 km/h (0 Bft) 95,83 %
26.09.2018 19:24 16,7 C 13,9 C 12,2 C 62 % 1029,6 hPa 0,0 l/m 0 min 0 min 6 W/m 0,0 km/h (0 Bft) 93,62 %
26.09.2018 19:26 16,6 C 13,9 C 12,2 C 62 % 1029,6 hPa 0,0 l/m 0 min 0 min 5 W/m 0,0 km/h (0 Bft) 97,87 %
26.09.2018 19:28 16,4 C 13,9 C 12,2 C 63 % 1029,6 hPa 0,0 l/m 0 min 0 min 5 W/m 0,0 km/h (0 Bft) 97,83 %
26.09.2018 19:30 16,3 C 13,3 C 12,2 C 62 % 1029,5 hPa 0,0 l/m 0 min 0 min 3 W/m 0,0 km/h (0 Bft) 97,87 %
26.09.2018 19:32 16,2 C 13,3 C 11,7 C 62 % 1029,6 hPa 0,0 l/m 0 min 0 min 0 W/m 0,0 km/h (0 Bft) 95,74 %
26.09.2018 19:34 16,1 C 13,3 C 11,7 C 63 % 1029,6 hPa 0,0 l/m 0 min 0 min 0 W/m 0,0 km/h (0 Bft) 93,62 %
26.09.2018 19:36 16,0 C 13,3 C 11,7 C 64 % 1029,5 hPa 0,0 l/m 0 min 0 min 0 W/m 0,0 km/h (0 Bft) 97,87 %
26.09.2018 19:38 15,9 C 13,3 C 11,7 C 64 % 1029,5 hPa 0,0 l/m 0 min 0 min 0 W/m 0,0 km/h (0 Bft) 97,87 %
26.09.2018 19:40 15,8 C 12,8 C 11,7 C 64 % 1029,6 hPa 0,0 l/m 0 min 0 min 0 W/m 0,0 km/h (0 Bft) 97,83 %
26.09.2018 19:42 15,7 C 12,8 C 11,7 C 64 % 1029,5 hPa 0,0 l/m 0 min 0 min 0 W/m 0,0 km/h (0 Bft) 97,87 %
26.09.2018 19:44 15,6 C 12,8 C 11,7 C 65 % 1029,5 hPa 0,0 l/m 0 min 0 min 0 W/m 0,0 km/h (0 Bft) 97,87 %
26.09.2018 19:46 15,4 C 12,8 C 11,7 C 65 % 1029,6 hPa 0,0 l/m 0 min 0 min 0 W/m 0,0 km/h (0 Bft) 100,00 %
26.09.2018 19:48 15,4 C 13,3 C 11,7 C 64 % 1029,6 hPa 0,0 l/m 0 min 0 min 0 W/m 0,0 km/h (0 Bft) 100,00 %
26.09.2018 19:50 15,3 C 13,3 C 11,7 C 64 % 1029,5 hPa 0,0 l/m 0 min 0 min 0 W/m 0,0 km/h (0 Bft) 100,00 %
26.09.2018 19:52 15,3 C 13,3 C 11,7 C 64 % 1029,5 hPa 0,0 l/m 0 min 0 min 0 W/m 0,0 km/h (0 Bft) 97,83 %
26.09.2018 19:54 15,2 C 13,3 C 11,1 C 65 % 1029,5 hPa 0,0 l/m 0 min 0 min 0 W/m 0,0 km/h (0 Bft) 100,00 %
26.09.2018 19:56 15,1 C 12,8 C 11,1 C 65 % 1029,6 hPa 0,0 l/m 0 min 0 min 0 W/m 0,0 km/h (0 Bft) 97,87 %
26.09.2018 19:58 15,0 C 12,8 C 11,1 C 66 % 1029,5 hPa 0,0 l/m 0 min 0 min 0 W/m 0,0 km/h (0 Bft) 100,00 %
26.09.2018 20:00 14,9 C 12,2 C 11,1 C 67 % 1029,6 hPa 0,0 l/m 0 min 0 min 0 W/m 0,0 km/h (0 Bft) 100,00 %
26.09.2018 20:02 14,8 C 12,2 C 11,1 C 68 % 1029,6 hPa 0,0 l/m 0 min 0 min 0 W/m 0,0 km/h (0 Bft) 100,00 %
26.09.2018 20:04 14,7 C 12,2 C 11,1 C 68 % 1029,6 hPa 0,0 l/m 0 min 0 min 0 W/m 0,0 km/h (0 Bft) 100,00 %
26.09.2018 20:06 14,6 C 12,2 C 11,1 C 68 % 1029,5 hPa 0,0 l/m 0 min 0 min 0 W/m 0,0 km/h (0 Bft) 100,00 %
26.09.2018 20:08 14,5 C 12,2 C 11,1 C 68 % 1029,5 hPa 0,0 l/m 0 min 0 min 0 W/m 0,0 km/h (0 Bft) 97,87 %
26.09.2018 20:10 14,4 C 12,2 C 11,1 C 68 % 1029,4 hPa 0,0 l/m 0 min 0 min 0 W/m 0,0 km/h (0 Bft) 97,87 %
26.09.2018 20:12 14,4 C 12,2 C 11,1 C 69 % 1029,4 hPa 0,0 l/m 0 min 0 min 0 W/m 0,0 km/h (0 Bft) 97,87 %
26.09.2018 20:14 14,3 C 12,2 C 11,1 C 68 % 1029,4 hPa 0,0 l/m 0 min 0 min 0 W/m 0,0 km/h (0 Bft) 97,83 %
26.09.2018 20:16 14,2 C 12,8 C 10,6 C 68 % 1029,5 hPa 0,0 l/m 0 min 0 min 0 W/m 0,0 km/h (0 Bft) 97,87 %
26.09.2018 20:18 14,2 C 12,8 C 10,6 C 68 % 1029,5 hPa 0,0 l/m 0 min 0 min 0 W/m 0,0 km/h (0 Bft) 97,87 %
26.09.2018 20:20 14,2 C 12,8 C 10,6 C 68 % 1029,4 hPa 0,0 l/m 0 min 0 min 0 W/m 0,0 km/h (0 Bft) 97,87 %
26.09.2018 20:22 14,2 C 12,8 C 10,6 C 68 % 1029,5 hPa 0,0 l/m 0 min 0 min 0 W/m 0,0 km/h (0 Bft) 95,74 %
26.09.2018 20:24 14,1 C 12,8 C 10,6 C 68 % 1029,5 hPa 0,0 l/m 0 min 0 min 0 W/m 0,0 km/h (0 Bft) 97,87 %
26.09.2018 20:26 13,9 C 12,2 C 10,6 C 69 % 1029,4 hPa 0,0 l/m 0 min 0 min 0 W/m 0,0 km/h (0 Bft) 95,74 %
26.09.2018 20:28 13,9 C 12,2 C 10,6 C 69 % 1029,4 hPa 0,0 l/m 0 min 0 min 0 W/m 0,0 km/h (0 Bft) 97,83 %
26.09.2018 20:30 13,8 C 12,2 C 10,6 C 69 % 1029,5 hPa 0,0 l/m 0 min 0 min 0 W/m 0,0 km/h (0 Bft) 97,87 %
26.09.2018 20:32 13,7 C 11,7 C 10,6 C 70 % 1029,5 hPa 0,0 l/m 0 min 0 min 0 W/m 0,0 km/h (0 Bft) 97,87 %
26.09.2018 20:34 13,7 C 11,7 C 10,6 C 71 % 1029,6 hPa 0,0 l/m 0 min 0 min 0 W/m 0,0 km/h (0 Bft) 97,87 %
26.09.2018 20:36 13,6 C 11,7 C 10,6 C 71 % 1029,5 hPa 0,0 l/m 0 min 0 min 0 W/m 0,0 km/h (0 Bft) 97,87 %
26.09.2018 20:38 13,6 C 11,7 C 10,6 C 71 % 1029,5 hPa 0,0 l/m 0 min 0 min 0 W/m 0,0 km/h (0 Bft) 97,83 %
26.09.2018 20:40 13,5 C 11,7 C 10,6 C 71 % 1029,5 hPa 0,0 l/m 0 min 0 min 0 W/m 0,0 km/h (0 Bft) 95,74 %
26.09.2018 20:42 13,4 C 11,7 C 10,6 C 72 % 1029,5 hPa 0,0 l/m 0 min 0 min 0 W/m 0,0 km/h (0 Bft) 97,87 %
26.09.2018 20:44 13,3 C 11,7 C 10,6 C 71 % 1029,5 hPa 0,0 l/m 0 min 0 min 0 W/m 3,2 km/h (1 Bft) 97,92 %
26.09.2018 20:46 13,3 C 11,7 C 10,6 C 71 % 1029,5 hPa 0,0 l/m 0 min 0 min 0 W/m 3,2 km/h (1 Bft) 97,87 %
26.09.2018 20:48 13,2 C 11,7 C 10,6 C 71 % 1029,5 hPa 0,0 l/m 0 min 0 min 0 W/m 0,0 km/h (0 Bft) 97,87 %
26.09.2018 20:50 13,2 C 12,2 C 10,6 C 71 % 1029,5 hPa 0,0 l/m 0 min 0 min 0 W/m 3,2 km/h (1 Bft) 97,83 %
26.09.2018 20:52 13,2 C 11,7 C 10,6 C 71 % 1029,5 hPa 0,0 l/m 0 min 0 min 0 W/m 3,2 km/h (1 Bft) 97,87 %
26.09.2018 20:54 13,1 C 11,7 C 10,6 C 71 % 1029,5 hPa 0,0 l/m 0 min 0 min 0 W/m 0,0 km/h (0 Bft) 95,74 %
26.09.2018 20:56 13,1 C 11,7 C 10,6 C 72 % 1029,6 hPa 0,0 l/m 0 min 0 min 0 W/m 0,0 km/h (0 Bft) 93,62 %
26.09.2018 20:58 13,0 C 11,1 C 10,0 C 73 % 1029,7 hPa 0,0 l/m 0 min 0 min 0 W/m 0,0 km/h (0 Bft) 95,74 %
26.09.2018 21:00 12,9 C 11,1 C 10,0 C 73 % 1029,7 hPa 0,0 l/m 0 min 0 min 0 W/m 0,0 km/h (0 Bft) 97,87 %
26.09.2018 21:02 12,9 C 11,1 C 10,0 C 73 % 1029,7 hPa 0,0 l/m 0 min 0 min 0 W/m 0,0 km/h (0 Bft) 97,83 %
26.09.2018 21:04 12,8 C 11,1 C 10,0 C 73 % 1029,6 hPa 0,0 l/m 0 min 0 min 0 W/m 0,0 km/h (0 Bft) 97,87 %
26.09.2018 21:06 12,8 C 11,1 C 10,0 C 73 % 1029,6 hPa 0,0 l/m 0 min 0 min 0 W/m 0,0 km/h (0 Bft) 97,87 %
26.09.2018 21:08 12,7 C 11,1 C 10,0 C 73 % 1029,6 hPa 0,0 l/m 0 min 0 min 0 W/m 0,0 km/h (0 Bft) 97,87 %
26.09.2018 21:10 12,7 C 10,6 C 10,0 C 73 % 1029,7 hPa 0,0 l/m 0 min 0 min 0 W/m 0,0 km/h (0 Bft) 95,74 %
26.09.2018 21:12 12,6 C 10,6 C 10,0 C 74 % 1029,7 hPa 0,0 l/m 0 min 0 min 0 W/m 0,0 km/h (0 Bft) 97,87 %
26.09.2018 21:14 12,6 C 10,6 C 10,0 C 74 % 1029,8 hPa 0,0 l/m 0 min 0 min 0 W/m 0,0 km/h (0 Bft) 97,83 %
26.09.2018 21:16 12,4 C 10,6 C 10,0 C 74 % 1029,7 hPa 0,0 l/m 0 min 0 min 0 W/m 0,0 km/h (0 Bft) 97,87 %
26.09.2018 21:18 12,4 C 10,6 C 10,0 C 74 % 1029,7 hPa 0,0 l/m 0 min 0 min 0 W/m 0,0 km/h (0 Bft) 93,62 %
26.09.2018 21:20 12,4 C 10,6 C 9,4 C 74 % 1029,7 hPa 0,0 l/m 0 min 0 min 0 W/m 0,0 km/h (0 Bft) 95,74 %
26.09.2018 21:22 12,3 C 10,6 C 9,4 C 75 % 1029,7 hPa 0,0 l/m 0 min 0 min 0 W/m 0,0 km/h (0 Bft) 97,87 %
26.09.2018 21:24 12,2 C 10,0 C 9,4 C 75 % 1029,8 hPa 0,0 l/m 0 min 0 min 0 W/m 0,0 km/h (0 Bft) 97,87 %
26.09.2018 21:26 12,2 C 10,0 C 9,4 C 75 % 1029,7 hPa 0,0 l/m 0 min 0 min 0 W/m 0,0 km/h (0 Bft) 97,83 %
26.09.2018 21:28 12,1 C 10,0 C 9,4 C 75 % 1029,8 hPa 0,0 l/m 0 min 0 min 0 W/m 0,0 km/h (0 Bft) 97,87 %
26.09.2018 21:30 12,0 C 10,0 C 9,4 C 76 % 1029,8 hPa 0,0 l/m 0 min 0 min 0 W/m 0,0 km/h (0 Bft) 97,87 %
26.09.2018 21:32 12,0 C 10,0 C 9,4 C 76 % 1029,8 hPa 0,0 l/m 0 min 0 min 0 W/m 0,0 km/h (0 Bft) 97,87 %
26.09.2018 21:34 11,9 C 10,0 C 9,4 C 76 % 1029,7 hPa 0,0 l/m 0 min 0 min 0 W/m 0,0 km/h (0 Bft) 97,87 %
26.09.2018 21:36 11,9 C 10,0 C 9,4 C 76 % 1029,7 hPa 0,0 l/m 0 min 0 min 0 W/m 0,0 km/h (0 Bft) 97,83 %
26.09.2018 21:38 11,8 C 10,0 C 9,4 C 76 % 1029,7 hPa 0,0 l/m 0 min 0 min 0 W/m 0,0 km/h (0 Bft) 100,00 %
26.09.2018 21:40 11,8 C 10,0 C 9,4 C 77 % 1029,8 hPa 0,0 l/m 0 min 0 min 0 W/m 0,0 km/h (0 Bft) 100,00 %
26.09.2018 21:42 11,7 C 10,0 C 9,4 C 77 % 1029,7 hPa 0,0 l/m 0 min 0 min 0 W/m 0,0 km/h (0 Bft) 100,00 %
26.09.2018 21:44 11,7 C 10,0 C 9,4 C 77 % 1029,8 hPa 0,0 l/m 0 min 0 min 0 W/m 0,0 km/h (0 Bft) 100,00 %
26.09.2018 21:46 11,6 C 10,0 C 9,4 C 77 % 1029,7 hPa 0,0 l/m 0 min 0 min 0 W/m 0,0 km/h (0 Bft) 100,00 %
26.09.2018 21:48 11,6 C 10,0 C 9,4 C 77 % 1029,7 hPa 0,0 l/m 0 min 0 min 0 W/m 0,0 km/h (0 Bft) 100,00 %
26.09.2018 21:50 11,5 C 9,4 C 9,4 C 77 % 1029,8 hPa 0,0 l/m 0 min 0 min 0 W/m 0,0 km/h (0 Bft) 100,00 %
26.09.2018 21:52 11,4 C 9,4 C 9,4 C 78 % 1029,8 hPa 0,0 l/m 0 min 0 min 0 W/m 0,0 km/h (0 Bft) 100,00 %
26.09.2018 21:54 11,4 C 9,4 C 9,4 C 78 % 1029,8 hPa 0,0 l/m 0 min 0 min 0 W/m 0,0 km/h (0 Bft) 100,00 %
26.09.2018 21:56 11,3 C 9,4 C 9,4 C 78 % 1029,7 hPa 0,0 l/m 0 min 0 min 0 W/m 0,0 km/h (0 Bft) 100,00 %
26.09.2018 21:58 11,3 C 9,4 C 9,4 C 78 % 1029,8 hPa 0,0 l/m 0 min 0 min 0 W/m 0,0 km/h (0 Bft) 100,00 %
26.09.2018 22:00 11,3 C 10,0 C 9,4 C 78 % 1029,7 hPa 0,0 l/m 0 min 0 min 0 W/m 0,0 km/h (0 Bft) 100,00 %
26.09.2018 22:02 11,2 C 9,4 C 8,9 C 78 % 1029,8 hPa 0,0 l/m 0 min 0 min 0 W/m 0,0 km/h (0 Bft) 97,87 %
26.09.2018 22:04 11,2 C 9,4 C 8,9 C 79 % 1029,9 hPa 0,0 l/m 0 min 0 min 0 W/m 0,0 km/h (0 Bft) 100,00 %
26.09.2018 22:06 11,1 C 9,4 C 9,4 C 79 % 1029,9 hPa 0,0 l/m 0 min 0 min 0 W/m 0,0 km/h (0 Bft) 97,87 %
26.09.2018 22:08 11,1 C 9,4 C 9,4 C 79 % 1029,8 hPa 0,0 l/m 0 min 0 min 0 W/m 0,0 km/h (0 Bft) 100,00 %
26.09.2018 22:10 11,1 C 9,4 C 8,9 C 79 % 1029,8 hPa 0,0 l/m 0 min 0 min 0 W/m 0,0 km/h (0 Bft) 100,00 %
26.09.2018 22:12 11,0 C 9,4 C 8,9 C 79 % 1029,8 hPa 0,0 l/m 0 min 0 min 0 W/m 0,0 km/h (0 Bft) 100,00 %
26.09.2018 22:14 10,9 C 9,4 C 8,9 C 79 % 1029,8 hPa 0,0 l/m 0 min 0 min 0 W/m 0,0 km/h (0 Bft) 100,00 %
26.09.2018 22:16 10,9 C 9,4 C 8,9 C 79 % 1029,9 hPa 0,0 l/m 0 min 0 min 0 W/m 0,0 km/h (0 Bft) 97,87 %
26.09.2018 22:18 10,9 C 9,4 C 8,9 C 79 % 1029,9 hPa 0,0 l/m 0 min 0 min 0 W/m 0,0 km/h (0 Bft) 100,00 %
26.09.2018 22:20 10,8 C 9,4 C 8,9 C 80 % 1029,9 hPa 0,0 l/m 0 min 0 min 0 W/m 0,0 km/h (0 Bft) 95,74 %
26.09.2018 22:22 10,8 C 9,4 C 8,9 C 80 % 1029,9 hPa 0,0 l/m 0 min 0 min 0 W/m 0,0 km/h (0 Bft) 100,00 %
26.09.2018 22:24 10,8 C 9,4 C 8,9 C 80 % 1029,9 hPa 0,0 l/m 0 min 0 min 0 W/m 0,0 km/h (0 Bft) 100,00 %
26.09.2018 22:26 10,7 C 9,4 C 8,9 C 80 % 1029,9 hPa 0,0 l/m 0 min 0 min 0 W/m 0,0 km/h (0 Bft) 100,00 %
26.09.2018 22:28 10,7 C 9,4 C 8,9 C 80 % 1030,0 hPa 0,0 l/m 0 min 0 min 0 W/m 0,0 km/h (0 Bft) 100,00 %
26.09.2018 22:30 10,7 C 9,4 C 8,9 C 80 % 1030,0 hPa 0,0 l/m 0 min 0 min 0 W/m 0,0 km/h (0 Bft) 100,00 %
26.09.2018 22:32 10,6 C 9,4 C 8,9 C 81 % 1030,0 hPa 0,0 l/m 0 min 0 min 0 W/m 0,0 km/h (0 Bft) 97,87 %
26.09.2018 22:34 10,6 C 9,4 C 8,9 C 81 % 1029,9 hPa 0,0 l/m 0 min 0 min 0 W/m 0,0 km/h (0 Bft) 97,83 %
26.09.2018 22:36 10,6 C 8,9 C 8,9 C 81 % 1029,9 hPa 0,0 l/m 0 min 0 min 0 W/m 0,0 km/h (0 Bft) 97,87 %
26.09.2018 22:38 10,5 C 8,9 C 8,9 C 81 % 1030,0 hPa 0,0 l/m 0 min 0 min 0 W/m 0,0 km/h (0 Bft) 97,87 %
26.09.2018 22:40 10,4 C 8,9 C 8,9 C 81 % 1030,0 hPa 0,0 l/m 0 min 0 min 0 W/m 0,0 km/h (0 Bft) 97,87 %
26.09.2018 22:42 10,4 C 8,9 C 8,9 C 81 % 1030,0 hPa 0,0 l/m 0 min 0 min 0 W/m 0,0 km/h (0 Bft) 95,74 %
26.09.2018 22:44 10,4 C 8,9 C 8,9 C 81 % 1029,9 hPa 0,0 l/m 0 min 0 min 0 W/m 0,0 km/h (0 Bft) 95,74 %
26.09.2018 22:46 10,3 C 8,9 C 8,3 C 81 % 1030,0 hPa 0,0 l/m 0 min 0 min 0 W/m 0,0 km/h (0 Bft) 97,87 %
26.09.2018 22:48 10,3 C 8,9 C 8,3 C 82 % 1030,0 hPa 0,0 l/m 0 min 0 min 0 W/m 0,0 km/h (0 Bft) 95,74 %
26.09.2018 22:50 10,3 C 8,9 C 8,3 C 82 % 1029,9 hPa 0,0 l/m 0 min 0 min 0 W/m 0,0 km/h (0 Bft) 97,87 %
26.09.2018 22:52 10,2 C 8,9 C 8,3 C 82 % 1029,9 hPa 0,0 l/m 0 min 0 min 0 W/m 0,0 km/h (0 Bft) 97,83 %
26.09.2018 22:54 10,2 C 8,9 C 8,3 C 82 % 1029,9 hPa 0,0 l/m 0 min 0 min 0 W/m 0,0 km/h (0 Bft) 93,62 %
26.09.2018 22:56 10,2 C 8,9 C 8,3 C 82 % 1029,8 hPa 0,0 l/m 0 min 0 min 0 W/m 0,0 km/h (0 Bft) 95,74 %
26.09.2018 22:58 10,1 C 8,9 C 8,3 C 82 % 1029,8 hPa 0,0 l/m 0 min 0 min 0 W/m 0,0 km/h (0 Bft) 93,62 %
26.09.2018 23:00 10,1 C 8,9 C 8,3 C 82 % 1029,8 hPa 0,0 l/m 0 min 0 min 0 W/m 0,0 km/h (0 Bft) 91,49 %
26.09.2018 23:02 10,1 C 8,9 C 8,3 C 82 % 1029,8 hPa 0,0 l/m 0 min 0 min 0 W/m 3,2 km/h (1 Bft) 95,74 %
26.09.2018 23:04 10,0 C 8,9 C 8,3 C 82 % 1029,8 hPa 0,0 l/m 0 min 0 min 0 W/m 3,2 km/h (1 Bft) 95,65 %
26.09.2018 23:06 10,0 C 8,9 C 8,3 C 83 % 1029,8 hPa 0,0 l/m 0 min 0 min 0 W/m 0,0 km/h (0 Bft) 95,74 %
26.09.2018 23:08 10,0 C 8,9 C 8,3 C 82 % 1029,8 hPa 0,0 l/m 0 min 0 min 0 W/m 0,0 km/h (0 Bft) 95,74 %
26.09.2018 23:10 9,9 C 8,3 C 8,3 C 82 % 1029,8 hPa 0,0 l/m 0 min 0 min 0 W/m 0,0 km/h (0 Bft) 95,74 %
26.09.2018 23:12 9,9 C 8,9 C 8,3 C 83 % 1029,8 hPa 0,0 l/m 0 min 0 min 0 W/m 0,0 km/h (0 Bft) 95,74 %
26.09.2018 23:14 9,9 C 8,9 C 8,3 C 83 % 1029,8 hPa 0,0 l/m 0 min 0 min 0 W/m 0,0 km/h (0 Bft) 95,65 %
26.09.2018 23:16 9,8 C 8,9 C 8,3 C 83 % 1029,8 hPa 0,0 l/m 0 min 0 min 0 W/m 0,0 km/h (0 Bft) 93,62 %
26.09.2018 23:18 9,8 C 8,9 C 8,3 C 83 % 1029,9 hPa 0,0 l/m 0 min 0 min 0 W/m 0,0 km/h (0 Bft) 95,74 %
26.09.2018 23:20 9,8 C 8,9 C 8,3 C 83 % 1029,8 hPa 0,0 l/m 0 min 0 min 0 W/m 0,0 km/h (0 Bft) 95,74 %
26.09.2018 23:22 9,8 C 8,9 C 8,3 C 83 % 1029,8 hPa 0,0 l/m 0 min 0 min 0 W/m 0,0 km/h (0 Bft) 95,74 %
26.09.2018 23:24 9,7 C 8,9 C 8,3 C 83 % 1029,8 hPa 0,0 l/m 0 min 0 min 0 W/m 3,2 km/h (1 Bft) 95,74 %
26.09.2018 23:26 9,7 C 8,9 C 8,3 C 83 % 1029,8 hPa 0,0 l/m 0 min 0 min 0 W/m 0,0 km/h (0 Bft) 95,65 %
26.09.2018 23:28 9,7 C 9,4 C 8,3 C 83 % 1029,8 hPa 0,0 l/m 0 min 0 min 0 W/m 0,0 km/h (0 Bft) 95,74 %
26.09.2018 23:30 9,7 C 9,4 C 8,3 C 84 % 1029,8 hPa 0,0 l/m 0 min 0 min 0 W/m 3,2 km/h (1 Bft) 95,74 %
26.09.2018 23:32 9,7 C 9,4 C 8,3 C 84 % 1029,9 hPa 0,0 l/m 0 min 0 min 0 W/m 0,0 km/h (0 Bft) 91,49 %
26.09.2018 23:34 9,6 C 8,9 C 8,3 C 84 % 1029,9 hPa 0,0 l/m 0 min 0 min 0 W/m 0,0 km/h (0 Bft) 95,74 %
26.09.2018 23:36 9,6 C 8,9 C 8,3 C 84 % 1029,9 hPa 0,0 l/m 0 min 0 min 0 W/m 0,0 km/h (0 Bft) 93,62 %
26.09.2018 23:38 9,6 C 8,9 C 8,3 C 84 % 1029,9 hPa 0,0 l/m 0 min 0 min 0 W/m 0,0 km/h (0 Bft) 95,65 %
26.09.2018 23:40 9,6 C 8,3 C 8,3 C 84 % 1029,9 hPa 0,0 l/m 0 min 0 min 0 W/m 0,0 km/h (0 Bft) 97,87 %
26.09.2018 23:42 9,5 C 8,3 C 8,3 C 84 % 1029,9 hPa 0,0 l/m 0 min 0 min 0 W/m 0,0 km/h (0 Bft) 95,74 %
26.09.2018 23:44 9,5 C 8,3 C 8,3 C 84 % 1030,0 hPa 0,0 l/m 0 min 0 min 0 W/m 0,0 km/h (0 Bft) 95,74 %
26.09.2018 23:46 9,5 C 8,3 C 8,3 C 84 % 1030,1 hPa 0,0 l/m 0 min 0 min 0 W/m 0,0 km/h (0 Bft) 93,75 %
26.09.2018 23:48 9,4 C 8,3 C 7,8 C 84 % 1030,0 hPa 0,0 l/m 0 min 0 min 0 W/m 0,0 km/h (0 Bft) 93,48 %
26.09.2018 23:50 9,4 C 8,3 C 7,8 C 84 % 1030,0 hPa 0,0 l/m 0 min 0 min 0 W/m 0,0 km/h (0 Bft) 93,62 %
26.09.2018 23:52 9,4 C 8,3 C 7,8 C 84 % 1030,1 hPa 0,0 l/m 0 min 0 min 0 W/m 0,0 km/h (0 Bft) 97,87 %
26.09.2018 23:54 9,4 C 8,3 C 7,8 C 84 % 1030,1 hPa 0,0 l/m 0 min 0 min 0 W/m 0,0 km/h (0 Bft) 97,87 %
26.09.2018 23:56 9,3 C 8,3 C 7,8 C 84 % 1030,1 hPa 0,0 l/m 0 min 0 min 0 W/m 0,0 km/h (0 Bft) 95,74 %
26.09.2018 23:58 9,3 C 8,9 C 7,8 C 84 % 1030,0 hPa 0,0 l/m 0 min 0 min 0 W/m 0,0 km/h (0 Bft) 97,87 %
_ Min-Zeit 06:12 01:52 02:00 16:10 18:22 - - - - 00:58 02:26
Minimum _ 6,0 C 5,6 C 5,6 C 48 % 1029,4 hPa - - - - 0,0 km/h (0 Bft) 89,36 %
_ Max-Zeit 17:08 11:58 15:50 03:16 00:00 00:00 09:46 00:00 14:00 10:36 00:02
Maximum _ 19,7 C 24,4 C 16,7 C 93 % 1034,1 hPa 0,0 l/m 2 min 0 min 602 W/m 19,3 km/h
SO (3 Bft)
100,00 %
Durchschnitt _ 11,6 C 11,8 C 9,9 C 77 % 1031,6 hPa #0,0 l/m #5:40 h #0 min. 258 W/m 5,6 km/h (1 Bft) 97,57 %
© 2018 W. Hausmann